Time,TemperatureF,DewpointF,PressureIn,WindDirection,WindDirectionDegrees,WindSpeedMPH,WindSpeedGustMPH,Humidity,HourlyPrecipIn,Conditions,Clouds,dailyrainin,SoftwareType,DateUTC
2013-07-03 00:00:00,63.2,51.2,30.13,WNW,293,3.6,6.7,65,0.00,,,0.00,WUHU216HW,2013-07-03 07:00:00,
2013-07-03 00:03:00,63.2,51.2,30.13,WNW,293,3.4,6.7,65,0.00,,,0.00,WUHU216HW,2013-07-03 07:03:00,
2013-07-03 00:04:00,63.2,51.2,30.13,West,270,3.8,6.7,65,0.00,,,0.00,WUHU216HW,2013-07-03 07:04:00,
2013-07-03 00:05:00,63.2,51.2,30.13,NW,315,4.3,6.7,65,0.00,,,0.00,WUHU216HW,2013-07-03 07:05:00,
2013-07-03 00:08:00,63.0,51.0,30.13,WNW,293,4.7,6.3,65,0.00,,,0.00,WUHU216HW,2013-07-03 07:08:00,
2013-07-03 00:09:00,63.0,51.0,30.13,WNW,293,4.3,5.6,65,0.00,,,0.00,WUHU216HW,2013-07-03 07:09:00,
2013-07-03 00:10:00,63.0,51.0,30.13,NW,315,2.7,5.6,65,0.00,,,0.00,WUHU216HW,2013-07-03 07:10:00,
2013-07-03 00:14:00,63.0,51.0,30.13,WNW,293,4.7,5.4,65,0.00,,,0.00,WUHU216HW,2013-07-03 07:14:00,
2013-07-03 00:15:00,63.0,51.0,30.13,West,270,2.5,5.4,65,0.00,,,0.00,WUHU216HW,2013-07-03 07:15:00,
2013-07-03 00:16:00,63.0,51.0,30.14,NW,315,2.5,5.4,65,0.00,,,0.00,WUHU216HW,2013-07-03 07:16:00,
2013-07-03 00:19:00,63.0,50.6,30.14,NW,315,3.4,5.4,64,0.00,,,0.00,WUHU216HW,2013-07-03 07:19:00,
2013-07-03 00:20:00,63.0,50.6,30.14,SW,225,2.7,4.7,64,0.00,,,0.00,WUHU216HW,2013-07-03 07:20:00,
2013-07-03 00:21:00,63.0,51.0,30.14,NW,315,2.9,4.7,65,0.00,,,0.00,WUHU216HW,2013-07-03 07:21:00,
2013-07-03 00:25:00,63.0,51.0,30.13,NW,315,6.0,6.0,65,0.00,,,0.00,WUHU216HW,2013-07-03 07:25:00,
2013-07-03 00:26:00,63.0,51.0,30.14,NW,315,3.4,6.0,65,0.00,,,0.00,WUHU216HW,2013-07-03 07:26:00,
2013-07-03 00:30:00,63.0,51.0,30.14,NNW,338,1.8,6.0,65,0.00,,,0.00,WUHU216HW,2013-07-03 07:30:00,
2013-07-03 00:31:00,63.0,50.6,30.14,WNW,293,2.5,6.0,64,0.00,,,0.00,WUHU216HW,2013-07-03 07:31:00,
2013-07-03 00:35:00,63.0,51.0,30.14,NW,315,1.8,6.0,65,0.00,,,0.00,WUHU216HW,2013-07-03 07:35:00,
2013-07-03 00:36:00,63.0,51.4,30.14,NNW,338,1.8,3.6,66,0.00,,,0.00,WUHU216HW,2013-07-03 07:36:00,
2013-07-03 00:38:00,62.8,50.9,30.14,NW,315,2.9,3.4,65,0.00,,,0.00,WUHU216HW,2013-07-03 07:38:00,
2013-07-03 00:40:00,62.8,50.4,30.14,WNW,293,3.4,3.4,64,0.00,,,0.00,WUHU216HW,2013-07-03 07:40:00,
2013-07-03 00:41:00,62.8,50.9,30.14,NW,315,3.6,3.6,65,0.00,,,0.00,WUHU216HW,2013-07-03 07:41:00,
2013-07-03 00:43:00,62.6,50.2,30.14,NW,315,1.8,3.6,64,0.00,,,0.00,WUHU216HW,2013-07-03 07:43:00,
2013-07-03 00:45:00,62.6,50.2,30.14,WNW,293,2.2,3.8,64,0.00,,,0.00,WUHU216HW,2013-07-03 07:45:00,
2013-07-03 00:46:00,62.6,50.2,30.14,NW,315,2.5,4.0,64,0.00,,,0.00,WUHU216HW,2013-07-03 07:46:00,
2013-07-03 00:47:00,62.6,50.2,30.14,West,270,4.3,4.3,64,0.00,,,0.00,WUHU216HW,2013-07-03 07:47:00,
2013-07-03 00:49:00,62.5,50.1,30.14,WSW,248,1.6,4.3,64,0.00,,,0.00,WUHU216HW,2013-07-03 07:49:00,
2013-07-03 00:50:00,62.5,50.1,30.14,NW,315,0.4,4.3,64,0.00,,,0.00,WUHU216HW,2013-07-03 07:50:00,
2013-07-03 00:51:00,62.5,50.1,30.14,WNW,293,2.9,4.3,64,0.00,,,0.00,WUHU216HW,2013-07-03 07:51:00,
2013-07-03 00:52:00,62.5,50.1,30.14,WNW,293,3.4,4.3,64,0.00,,,0.00,WUHU216HW,2013-07-03 07:52:00,
2013-07-03 00:54:00,62.3,50.0,30.14,WNW,293,2.9,4.3,64,0.00,,,0.00,WUHU216HW,2013-07-03 07:54:00,
2013-07-03 00:55:00,62.3,50.0,30.14,NW,315,2.5,4.3,64,0.00,,,0.00,WUHU216HW,2013-07-03 07:55:00,
2013-07-03 00:57:00,62.3,50.0,30.14,NW,315,3.1,4.3,64,0.00,,,0.00,WUHU216HW,2013-07-03 07:57:00,
2013-07-03 00:59:00,62.1,50.2,30.14,WSW,248,2.5,4.3,65,0.00,,,0.00,WUHU216HW,2013-07-03 07:59:00,
2013-07-03 01:01:00,62.1,50.2,30.14,NNW,338,4.7,4.7,65,0.00,,,0.00,WUHU216HW,2013-07-03 08:01:00,
2013-07-03 01:02:00,61.9,49.2,30.14,NW,315,4.9,4.9,63,0.00,,,0.00,WUHU216HW,2013-07-03 08:02:00,
2013-07-03 01:03:00,61.9,49.6,30.14,WNW,293,2.5,4.9,64,0.00,,,0.00,WUHU216HW,2013-07-03 08:03:00,
2013-07-03 01:04:00,61.9,49.6,30.14,NW,315,4.0,4.9,64,0.00,,,0.00,WUHU216HW,2013-07-03 08:04:00,
2013-07-03 01:06:00,61.9,49.6,30.14,NW,315,2.9,4.9,64,0.00,,,0.00,WUHU216HW,2013-07-03 08:06:00,
2013-07-03 01:08:00,61.7,49.9,30.14,NW,315,3.4,4.9,65,0.00,,,0.00,WUHU216HW,2013-07-03 08:08:00,
2013-07-03 01:09:00,61.9,50.1,30.14,NW,315,3.8,4.9,65,0.00,,,0.00,WUHU216HW,2013-07-03 08:09:00,
2013-07-03 01:12:00,61.7,49.4,30.14,NW,315,2.2,4.9,64,0.00,,,0.00,WUHU216HW,2013-07-03 08:12:00,
2013-07-03 01:14:00,61.7,49.4,30.14,NW,315,2.7,4.7,64,0.00,,,0.00,WUHU216HW,2013-07-03 08:14:00,
2013-07-03 01:17:00,61.7,49.4,30.14,NNW,338,1.6,4.7,64,0.00,,,0.00,WUHU216HW,2013-07-03 08:17:00,
2013-07-03 01:18:00,61.6,49.3,30.14,NNW,338,0.4,4.7,64,0.00,,,0.00,WUHU216HW,2013-07-03 08:18:00,
2013-07-03 01:19:00,61.6,48.9,30.14,NW,315,0.9,4.7,63,0.00,,,0.00,WUHU216HW,2013-07-03 08:19:00,
2013-07-03 01:22:00,61.6,48.9,30.14,WNW,293,2.5,4.3,63,0.00,,,0.00,WUHU216HW,2013-07-03 08:22:00,
2013-07-03 01:23:00,61.6,49.7,30.14,NNW,338,3.4,4.3,65,0.00,,,0.00,WUHU216HW,2013-07-03 08:23:00,
2013-07-03 01:24:00,61.6,49.3,30.14,NNW,338,2.9,4.3,64,0.00,,,0.00,WUHU216HW,2013-07-03 08:24:00,
2013-07-03 01:27:00,61.4,49.2,30.14,NW,315,4.3,4.3,64,0.00,,,0.00,WUHU216HW,2013-07-03 08:27:00,
2013-07-03 01:28:00,61.4,49.2,30.14,NW,315,2.5,4.3,64,0.00,,,0.00,WUHU216HW,2013-07-03 08:28:00,
2013-07-03 01:29:00,61.4,49.2,30.14,WNW,293,2.0,4.3,64,0.00,,,0.00,WUHU216HW,2013-07-03 08:29:00,
2013-07-03 01:32:00,61.4,49.2,30.14,NW,315,4.3,4.3,64,0.00,,,0.00,WUHU216HW,2013-07-03 08:32:00,
2013-07-03 01:33:00,61.2,49.4,30.14,NNW,338,2.7,4.3,65,0.00,,,0.00,WUHU216HW,2013-07-03 08:33:00,
2013-07-03 01:34:00,61.4,49.5,30.14,NW,315,2.5,4.3,65,0.00,,,0.00,WUHU216HW,2013-07-03 08:34:00,
2013-07-03 01:35:00,61.2,49.0,30.14,West,270,1.8,4.3,64,0.00,,,0.00,WUHU216HW,2013-07-03 08:35:00,
2013-07-03 01:38:00,61.2,48.5,30.14,NW,315,2.7,4.3,63,0.00,,,0.00,WUHU216HW,2013-07-03 08:38:00,
2013-07-03 01:39:00,61.2,49.0,30.14,NW,315,1.1,4.3,64,0.00,,,0.00,WUHU216HW,2013-07-03 08:39:00,
2013-07-03 01:40:00,61.2,49.0,30.14,WNW,293,1.8,4.3,64,0.00,,,0.00,WUHU216HW,2013-07-03 08:40:00,
2013-07-03 01:43:00,61.2,49.0,30.15,NW,315,1.3,4.9,64,0.00,,,0.00,WUHU216HW,2013-07-03 08:43:00,
2013-07-03 01:44:00,61.2,48.5,30.15,NW,315,2.0,4.9,63,0.00,,,0.00,WUHU216HW,2013-07-03 08:44:00,
2013-07-03 01:45:00,61.2,49.0,30.14,NW,315,3.6,4.9,64,0.00,,,0.00,WUHU216HW,2013-07-03 08:45:00,
2013-07-03 01:48:00,61.2,49.0,30.15,NNW,338,1.6,4.9,64,0.00,,,0.00,WUHU216HW,2013-07-03 08:48:00,
2013-07-03 01:49:00,61.2,49.0,30.15,North,0,0.2,4.9,64,0.00,,,0.00,WUHU216HW,2013-07-03 08:49:00,
2013-07-03 01:50:00,61.2,49.0,30.15,WNW,293,4.5,4.9,64,0.00,,,0.00,WUHU216HW,2013-07-03 08:50:00,
2013-07-03 01:53:00,61.4,49.2,30.15,NW,315,3.6,4.5,64,0.00,,,0.00,WUHU216HW,2013-07-03 08:53:00,
2013-07-03 01:54:00,61.4,48.7,30.15,WNW,293,2.9,4.5,63,0.00,,,0.00,WUHU216HW,2013-07-03 08:54:00,
2013-07-03 01:55:00,61.4,49.2,30.15,NW,315,3.4,4.5,64,0.00,,,0.00,WUHU216HW,2013-07-03 08:55:00,
2013-07-03 01:59:00,61.6,48.9,30.15,NW,315,0.9,4.5,63,0.00,,,0.00,WUHU216HW,2013-07-03 08:59:00,
2013-07-03 02:00:00,61.6,48.9,30.15,NNW,338,2.2,4.5,63,0.00,,,0.00,WUHU216HW,2013-07-03 09:00:00,
2013-07-03 02:01:00,61.6,48.9,30.15,NE,45,3.8,3.8,63,0.00,,,0.00,WUHU216HW,2013-07-03 09:01:00,
2013-07-03 02:04:00,61.6,48.9,30.15,NNW,338,1.8,3.8,63,0.00,,,0.00,WUHU216HW,2013-07-03 09:04:00,
2013-07-03 02:05:00,61.6,48.4,30.15,NNE,23,1.8,3.8,62,0.00,,,0.00,WUHU216HW,2013-07-03 09:05:00,
2013-07-03 02:06:00,61.6,48.4,30.15,NNW,338,2.9,3.8,62,0.00,,,0.00,WUHU216HW,2013-07-03 09:06:00,
2013-07-03 02:09:00,61.6,48.4,30.15,NNW,338,2.0,3.8,62,0.00,,,0.00,WUHU216HW,2013-07-03 09:09:00,
2013-07-03 02:10:00,61.6,48.4,30.15,West,270,2.2,3.8,62,0.00,,,0.00,WUHU216HW,2013-07-03 09:10:00,
2013-07-03 02:11:00,61.6,48.4,30.15,West,270,2.2,3.1,62,0.00,,,0.00,WUHU216HW,2013-07-03 09:11:00,
2013-07-03 02:14:00,61.6,48.4,30.15,NW,315,2.2,3.1,62,0.00,,,0.00,WUHU216HW,2013-07-03 09:14:00,
2013-07-03 02:15:00,61.4,48.7,30.15,NNW,338,1.6,3.1,63,0.00,,,0.00,WUHU216HW,2013-07-03 09:15:00,
2013-07-03 02:16:00,61.4,48.7,30.15,NW,315,2.2,3.1,63,0.00,,,0.00,WUHU216HW,2013-07-03 09:16:00,
2013-07-03 02:19:00,61.4,48.3,30.15,NNW,338,1.8,3.4,62,0.00,,,0.00,WUHU216HW,2013-07-03 09:19:00,
2013-07-03 02:20:00,61.2,48.2,30.15,NW,315,1.6,3.4,62,0.00,,,0.00,WUHU216HW,2013-07-03 09:20:00,
2013-07-03 02:21:00,61.2,48.5,30.15,NW,315,1.8,3.4,63,0.00,,,0.00,WUHU216HW,2013-07-03 09:21:00,
2013-07-03 02:24:00,61.2,48.2,30.15,NNE,23,2.9,4.0,62,0.00,,,0.00,WUHU216HW,2013-07-03 09:24:00,
2013-07-03 02:25:00,61.0,48.0,30.15,South,180,0.2,4.0,62,0.00,,,0.00,WUHU216HW,2013-07-03 09:25:00,
2013-07-03 02:26:00,61.0,48.4,30.15,WSW,248,2.0,4.0,63,0.00,,,0.00,WUHU216HW,2013-07-03 09:26:00,
2013-07-03 02:30:00,61.0,48.0,30.15,NW,315,2.5,4.0,62,0.00,,,0.00,WUHU216HW,2013-07-03 09:30:00,
2013-07-03 02:31:00,60.8,47.8,30.15,North,0,2.0,4.0,62,0.00,,,0.00,WUHU216HW,2013-07-03 09:31:00,
2013-07-03 02:32:00,60.8,47.8,30.15,NNW,338,1.3,4.0,62,0.00,,,0.00,WUHU216HW,2013-07-03 09:32:00,
2013-07-03 02:35:00,60.8,48.3,30.15,North,0,1.8,4.7,63,0.00,,,0.00,WUHU216HW,2013-07-03 09:35:00,
2013-07-03 02:36:00,60.8,48.3,30.15,NNW,338,0.9,4.7,63,0.00,,,0.00,WUHU216HW,2013-07-03 09:36:00,
2013-07-03 02:37:00,60.8,48.3,30.15,NNW,338,2.0,4.7,63,0.00,,,0.00,WUHU216HW,2013-07-03 09:37:00,
2013-07-03 02:40:00,60.7,48.1,30.15,NNW,338,2.5,4.7,63,0.00,,,0.00,WUHU216HW,2013-07-03 09:40:00,
2013-07-03 02:41:00,60.5,47.9,30.15,NW,315,2.5,4.7,63,0.00,,,0.00,WUHU216HW,2013-07-03 09:41:00,
2013-07-03 02:42:00,60.5,47.9,30.15,NNW,338,1.1,4.7,63,0.00,,,0.00,WUHU216HW,2013-07-03 09:42:00,
2013-07-03 02:45:00,60.5,47.4,30.15,NNW,338,3.1,3.8,62,0.00,,,0.00,WUHU216HW,2013-07-03 09:45:00,
2013-07-03 02:46:00,60.3,47.3,30.15,NNW,338,2.9,4.0,62,0.00,,,0.00,WUHU216HW,2013-07-03 09:46:00,
2013-07-03 02:48:00,60.1,47.1,30.16,NW,315,2.5,4.0,62,0.00,,,0.00,WUHU216HW,2013-07-03 09:48:00,
2013-07-03 02:49:00,60.1,47.1,30.16,NW,315,2.5,4.0,62,0.00,,,0.00,WUHU216HW,2013-07-03 09:49:00,
2013-07-03 02:50:00,60.1,47.5,30.16,NNW,338,1.1,4.3,63,0.00,,,0.00,WUHU216HW,2013-07-03 09:50:00,
2013-07-03 02:51:00,60.1,47.5,30.16,NNW,338,3.1,4.3,63,0.00,,,0.00,WUHU216HW,2013-07-03 09:51:00,
2013-07-03 02:54:00,60.1,47.1,30.16,NW,315,0.9,4.3,62,0.00,,,0.00,WUHU216HW,2013-07-03 09:54:00,
2013-07-03 02:55:00,60.1,47.1,30.16,NNW,338,1.6,4.7,62,0.00,,,0.00,WUHU216HW,2013-07-03 09:55:00,
2013-07-03 02:57:00,60.1,47.5,30.16,NNW,338,2.5,4.7,63,0.00,,,0.00,WUHU216HW,2013-07-03 09:57:00,
2013-07-03 02:59:00,60.1,47.9,30.16,NNW,338,2.7,4.7,64,0.00,,,0.00,WUHU216HW,2013-07-03 09:59:00,
2013-07-03 03:00:00,59.9,47.4,30.15,NNW,338,1.8,4.7,63,0.00,,,0.00,WUHU216HW,2013-07-03 10:00:00,
2013-07-03 03:02:00,59.9,47.4,30.16,NNE,23,1.3,4.7,63,0.00,,,0.00,WUHU216HW,2013-07-03 10:02:00,
2013-07-03 03:04:00,59.9,47.4,30.16,WNW,293,2.5,2.9,63,0.00,,,0.00,WUHU216HW,2013-07-03 10:04:00,
2013-07-03 03:05:00,59.9,47.4,30.15,NNW,338,2.9,2.9,63,0.00,,,0.00,WUHU216HW,2013-07-03 10:05:00,
2013-07-03 03:09:00,60.1,47.9,30.15,NW,315,2.5,4.0,64,0.00,,,0.00,WUHU216HW,2013-07-03 10:09:00,
2013-07-03 03:10:00,59.9,47.4,30.16,NW,315,2.5,4.0,63,0.00,,,0.00,WUHU216HW,2013-07-03 10:10:00,
2013-07-03 03:11:00,60.1,47.5,30.15,NW,315,2.5,4.0,63,0.00,,,0.00,WUHU216HW,2013-07-03 10:11:00,
2013-07-03 03:14:00,60.1,47.5,30.15,West,270,2.0,4.0,63,0.00,,,0.00,WUHU216HW,2013-07-03 10:14:00,
2013-07-03 03:15:00,60.1,47.9,30.15,WNW,293,2.5,4.0,64,0.00,,,0.00,WUHU216HW,2013-07-03 10:15:00,
2013-07-03 03:17:00,60.1,48.3,30.15,NW,315,3.4,4.0,65,0.00,,,0.00,WUHU216HW,2013-07-03 10:17:00,
2013-07-03 03:19:00,60.1,47.9,30.16,NNW,338,1.8,4.0,64,0.00,,,0.00,WUHU216HW,2013-07-03 10:19:00,
2013-07-03 03:20:00,60.1,48.3,30.16,WNW,293,1.3,4.0,65,0.00,,,0.00,WUHU216HW,2013-07-03 10:20:00,
2013-07-03 03:22:00,60.1,47.9,30.15,NW,315,1.6,4.0,64,0.00,,,0.00,WUHU216HW,2013-07-03 10:22:00,
2013-07-03 03:25:00,60.1,47.9,30.15,WNW,293,2.2,4.0,64,0.00,,,0.00,WUHU216HW,2013-07-03 10:25:00,
2013-07-03 03:26:00,60.1,47.9,30.15,NW,315,0.7,4.0,64,0.00,,,0.00,WUHU216HW,2013-07-03 10:26:00,
2013-07-03 03:28:00,60.1,47.9,30.16,NW,315,1.3,4.0,64,0.00,,,0.00,WUHU216HW,2013-07-03 10:28:00,
2013-07-03 03:30:00,60.1,47.9,30.16,WNW,293,1.6,3.4,64,0.00,,,0.00,WUHU216HW,2013-07-03 10:30:00,
2013-07-03 03:31:00,60.1,47.9,30.16,WNW,293,1.6,3.4,64,0.00,,,0.00,WUHU216HW,2013-07-03 10:31:00,
2013-07-03 03:34:00,60.1,47.9,30.16,NNE,23,1.6,3.4,64,0.00,,,0.00,WUHU216HW,2013-07-03 10:34:00,
2013-07-03 03:35:00,60.1,47.9,30.16,NW,315,1.6,3.4,64,0.00,,,0.00,WUHU216HW,2013-07-03 10:35:00,
2013-07-03 03:36:00,60.1,47.9,30.16,NNW,338,1.1,3.4,64,0.00,,,0.00,WUHU216HW,2013-07-03 10:36:00,
2013-07-03 03:39:00,60.1,47.9,30.16,NW,315,2.2,5.4,64,0.00,,,0.00,WUHU216HW,2013-07-03 10:39:00,
2013-07-03 03:40:00,60.1,48.3,30.16,NW,315,1.8,5.4,65,0.00,,,0.00,WUHU216HW,2013-07-03 10:40:00,
2013-07-03 03:41:00,60.1,47.9,30.16,WNW,293,1.3,5.4,64,0.00,,,0.00,WUHU216HW,2013-07-03 10:41:00,
2013-07-03 03:44:00,60.1,47.9,30.16,North,0,1.1,5.4,64,0.00,,,0.00,WUHU216HW,2013-07-03 10:44:00,
2013-07-03 03:46:00,60.1,47.9,30.16,NNW,338,0.7,5.4,64,0.00,,,0.00,WUHU216HW,2013-07-03 10:46:00,
2013-07-03 03:49:00,60.1,47.9,30.17,NW,315,0.4,2.9,64,0.00,,,0.00,WUHU216HW,2013-07-03 10:49:00,
2013-07-03 03:52:00,60.1,47.5,30.17,North,0,0.7,2.0,63,0.00,,,0.00,WUHU216HW,2013-07-03 10:52:00,
2013-07-03 03:54:00,60.1,47.5,30.17,NW,315,2.2,2.2,63,0.00,,,0.00,WUHU216HW,2013-07-03 10:54:00,
2013-07-03 03:55:00,59.9,47.4,30.17,NW,315,1.8,2.9,63,0.00,,,0.00,WUHU216HW,2013-07-03 10:55:00,
2013-07-03 03:57:00,59.9,47.4,30.17,West,270,1.1,2.9,63,0.00,,,0.00,WUHU216HW,2013-07-03 10:57:00,
2013-07-03 04:00:00,59.9,47.7,30.17,NNW,338,1.1,3.8,64,0.00,,,0.00,WUHU216HW,2013-07-03 11:00:00,
2013-07-03 04:02:00,59.9,47.7,30.17,NNW,338,2.9,3.8,64,0.00,,,0.00,WUHU216HW,2013-07-03 11:02:00,
2013-07-03 04:05:00,59.9,47.7,30.17,WNW,293,0.9,4.7,64,0.00,,,0.00,WUHU216HW,2013-07-03 11:05:00,
2013-07-03 04:07:00,59.9,47.7,30.17,North,0,1.1,4.7,64,0.00,,,0.00,WUHU216HW,2013-07-03 11:07:00,
2013-07-03 04:08:00,59.9,47.7,30.17,SSW,203,0.4,4.7,64,0.00,,,0.00,WUHU216HW,2013-07-03 11:08:00,
2013-07-03 04:09:00,59.8,47.5,30.17,NNW,338,0.0,4.7,64,0.00,,,0.00,WUHU216HW,2013-07-03 11:09:00,
2013-07-03 04:12:00,59.8,47.5,30.17,NNW,338,0.2,4.7,64,0.00,,,0.00,WUHU216HW,2013-07-03 11:12:00,
2013-07-03 04:13:00,59.8,47.5,30.17,WSW,248,1.1,2.9,64,0.00,,,0.00,WUHU216HW,2013-07-03 11:13:00,
2013-07-03 04:14:00,59.8,47.5,30.17,WNW,293,1.3,2.0,64,0.00,,,0.00,WUHU216HW,2013-07-03 11:14:00,
2013-07-03 04:17:00,59.8,47.5,30.17,NNW,338,1.1,2.5,64,0.00,,,0.00,WUHU216HW,2013-07-03 11:17:00,
2013-07-03 04:18:00,59.8,47.5,30.17,NNW,338,0.7,2.5,64,0.00,,,0.00,WUHU216HW,2013-07-03 11:18:00,
2013-07-03 04:19:00,59.8,47.5,30.17,WSW,248,0.4,2.5,64,0.00,,,0.00,WUHU216HW,2013-07-03 11:19:00,
2013-07-03 04:22:00,59.8,47.5,30.17,NNW,338,3.4,4.3,64,0.00,,,0.00,WUHU216HW,2013-07-03 11:22:00,
2013-07-03 04:23:00,59.8,48.0,30.17,WNW,293,0.4,4.3,65,0.00,,,0.00,WUHU216HW,2013-07-03 11:23:00,
2013-07-03 04:24:00,59.8,48.0,30.17,WNW,293,0.7,4.3,65,0.00,,,0.00,WUHU216HW,2013-07-03 11:24:00,
2013-07-03 04:25:00,59.8,48.0,30.17,WNW,293,1.8,4.3,65,0.00,,,0.00,WUHU216HW,2013-07-03 11:25:00,
2013-07-03 04:28:00,59.8,48.0,30.17,WNW,293,0.4,4.3,65,0.00,,,0.00,WUHU216HW,2013-07-03 11:28:00,
2013-07-03 04:30:00,59.8,48.0,30.17,NE,45,0.4,4.3,65,0.00,,,0.00,WUHU216HW,2013-07-03 11:30:00,
2013-07-03 04:33:00,59.8,48.4,30.17,NW,315,2.2,3.8,66,0.00,,,0.00,WUHU216HW,2013-07-03 11:33:00,
2013-07-03 04:35:00,59.8,48.0,30.17,North,0,1.8,3.8,65,0.00,,,0.00,WUHU216HW,2013-07-03 11:35:00,
2013-07-03 04:38:00,59.6,48.3,30.17,NW,315,2.5,3.8,66,0.00,,,0.00,WUHU216HW,2013-07-03 11:38:00,
2013-07-03 04:40:00,59.6,48.3,30.17,NNW,338,2.9,3.8,66,0.00,,,0.00,WUHU216HW,2013-07-03 11:40:00,
2013-07-03 04:43:00,59.6,48.3,30.17,NW,315,3.4,3.4,66,0.00,,,0.00,WUHU216HW,2013-07-03 11:43:00,
2013-07-03 04:44:00,59.6,48.3,30.17,NW,315,2.2,3.4,66,0.00,,,0.00,WUHU216HW,2013-07-03 11:44:00,
2013-07-03 04:45:00,59.6,48.3,30.17,NW,315,1.8,3.4,66,0.00,,,0.00,WUHU216HW,2013-07-03 11:45:00,
2013-07-03 04:46:00,59.6,48.6,30.17,WNW,293,1.8,3.4,67,0.00,,,0.00,WUHU216HW,2013-07-03 11:46:00,
2013-07-03 04:48:00,59.4,48.1,30.17,NW,315,1.8,3.4,66,0.00,,,0.00,WUHU216HW,2013-07-03 11:48:00,
2013-07-03 04:50:00,59.4,48.1,30.17,NW,315,2.5,3.4,66,0.00,,,0.00,WUHU216HW,2013-07-03 11:50:00,
2013-07-03 04:51:00,59.4,48.1,30.17,NNW,338,2.5,3.4,66,0.00,,,0.00,WUHU216HW,2013-07-03 11:51:00,
2013-07-03 04:53:00,59.4,49.7,30.17,NNW,338,2.2,3.4,70,0.00,,,0.00,WUHU216HW,2013-07-03 11:53:00,
2013-07-03 04:55:00,59.4,49.7,30.17,NNW,338,2.2,3.4,70,0.00,,,0.00,WUHU216HW,2013-07-03 11:55:00,
2013-07-03 04:56:00,59.4,49.2,30.17,NNW,338,1.1,3.4,69,0.00,,,0.00,WUHU216HW,2013-07-03 11:56:00,
2013-07-03 04:59:00,59.4,49.2,30.17,NNW,338,3.1,3.4,69,0.00,,,0.00,WUHU216HW,2013-07-03 11:59:00,
2013-07-03 05:00:00,59.4,48.9,30.17,North,0,1.8,3.4,68,0.00,,,0.00,WUHU216HW,2013-07-03 12:00:00,
2013-07-03 05:01:00,59.4,48.9,30.17,NW,315,1.8,3.4,68,0.00,,,0.00,WUHU216HW,2013-07-03 12:01:00,
2013-07-03 05:02:00,59.4,48.9,30.17,WNW,293,1.3,3.4,68,0.00,,,0.00,WUHU216HW,2013-07-03 12:02:00,
2013-07-03 05:05:00,59.4,50.0,30.17,NW,315,2.7,4.3,71,0.00,,,0.00,WUHU216HW,2013-07-03 12:05:00,
2013-07-03 05:06:00,59.4,49.2,30.17,WNW,293,1.3,4.3,69,0.00,,,0.00,WUHU216HW,2013-07-03 12:06:00,
2013-07-03 05:07:00,59.4,49.2,30.17,NW,315,2.5,4.3,69,0.00,,,0.00,WUHU216HW,2013-07-03 12:07:00,
2013-07-03 05:11:00,59.4,48.9,30.17,West,270,0.7,4.3,68,0.00,,,0.00,WUHU216HW,2013-07-03 12:11:00,
2013-07-03 05:12:00,59.4,49.2,30.17,West,270,1.6,4.3,69,0.00,,,0.00,WUHU216HW,2013-07-03 12:12:00,
2013-07-03 05:16:00,59.4,49.2,30.17,NW,315,2.5,4.0,69,0.00,,,0.00,WUHU216HW,2013-07-03 12:16:00,
2013-07-03 05:18:00,59.4,48.9,30.17,NW,315,2.5,3.4,68,0.00,,,0.00,WUHU216HW,2013-07-03 12:18:00,
2013-07-03 05:20:00,59.4,48.9,30.18,WNW,293,2.5,3.1,68,0.00,,,0.00,WUHU216HW,2013-07-03 12:20:00,
2013-07-03 05:21:00,59.2,49.1,30.17,NNW,338,2.7,3.4,69,0.00,,,0.00,WUHU216HW,2013-07-03 12:21:00,
2013-07-03 05:22:00,59.2,49.1,30.18,NW,315,2.5,3.4,69,0.00,,,0.00,WUHU216HW,2013-07-03 12:22:00,
2013-07-03 05:23:00,59.4,48.9,30.18,NW,315,3.6,3.6,68,0.00,,,0.00,WUHU216HW,2013-07-03 12:23:00,
2013-07-03 05:25:00,59.2,48.7,30.18,NNW,338,2.5,3.6,68,0.00,,,0.00,WUHU216HW,2013-07-03 12:25:00,
2013-07-03 05:26:00,59.4,48.9,30.18,NNE,23,3.6,4.0,68,0.00,,,0.00,WUHU216HW,2013-07-03 12:26:00,
2013-07-03 05:27:00,59.2,48.7,30.18,NW,315,2.7,4.0,68,0.00,,,0.00,WUHU216HW,2013-07-03 12:27:00,
2013-07-03 05:28:00,59.4,49.2,30.18,NW,315,3.6,4.3,69,0.00,,,0.00,WUHU216HW,2013-07-03 12:28:00,
2013-07-03 05:30:00,59.4,49.2,30.18,NW,315,2.9,4.3,69,0.00,,,0.00,WUHU216HW,2013-07-03 12:30:00,
2013-07-03 05:31:00,59.4,49.7,30.18,NW,315,2.2,4.3,70,0.00,,,0.00,WUHU216HW,2013-07-03 12:31:00,
2013-07-03 05:32:00,59.4,49.7,30.18,NNW,338,3.4,4.3,70,0.00,,,0.00,WUHU216HW,2013-07-03 12:32:00,
2013-07-03 05:34:00,59.4,49.2,30.18,WNW,293,3.1,4.3,69,0.00,,,0.00,WUHU216HW,2013-07-03 12:34:00,
2013-07-03 05:35:00,59.4,49.2,30.18,NNW,338,2.7,4.3,69,0.00,,,0.00,WUHU216HW,2013-07-03 12:35:00,
2013-07-03 05:36:00,59.4,49.2,30.18,NW,315,1.6,4.3,69,0.00,,,0.00,WUHU216HW,2013-07-03 12:36:00,
2013-07-03 05:37:00,59.4,49.2,30.18,NW,315,3.4,4.5,69,0.00,,,0.00,WUHU216HW,2013-07-03 12:37:00,
2013-07-03 05:40:00,59.4,49.2,30.18,NW,315,2.2,4.5,69,0.00,,,0.00,WUHU216HW,2013-07-03 12:40:00,
2013-07-03 05:41:00,59.4,48.9,30.18,NNW,338,2.0,4.5,68,0.00,,,0.00,WUHU216HW,2013-07-03 12:41:00,
2013-07-03 05:42:00,59.4,48.9,30.18,NW,315,2.5,4.5,68,0.00,,,0.00,WUHU216HW,2013-07-03 12:42:00,
2013-07-03 05:45:00,59.4,48.9,30.18,NNW,338,0.9,4.5,68,0.00,,,0.00,WUHU216HW,2013-07-03 12:45:00,
2013-07-03 05:46:00,59.4,48.9,30.19,WNW,293,0.9,4.5,68,0.00,,,0.00,WUHU216HW,2013-07-03 12:46:00,
2013-07-03 05:47:00,59.4,48.9,30.19,WSW,248,1.1,4.0,68,0.00,,,0.00,WUHU216HW,2013-07-03 12:47:00,
2013-07-03 05:50:00,59.4,48.9,30.19,NW,315,1.3,2.9,68,0.00,,,0.00,WUHU216HW,2013-07-03 12:50:00,
2013-07-03 05:52:00,59.4,49.2,30.19,WSW,248,1.1,2.5,69,0.00,,,0.00,WUHU216HW,2013-07-03 12:52:00,
2013-07-03 05:55:00,59.4,49.2,30.19,WNW,293,1.1,2.7,69,0.00,,,0.00,WUHU216HW,2013-07-03 12:55:00,
2013-07-03 05:57:00,59.4,49.2,30.19,NW,315,1.6,3.4,69,0.00,,,0.00,WUHU216HW,2013-07-03 12:57:00,
2013-07-03 05:58:00,59.4,49.2,30.19,NW,315,1.6,3.4,69,0.00,,,0.00,WUHU216HW,2013-07-03 12:58:00,
2013-07-03 06:00:00,59.4,49.2,30.19,NNW,338,1.1,3.4,69,0.00,,,0.00,WUHU216HW,2013-07-03 13:00:00,
2013-07-03 06:02:00,59.4,49.2,30.19,NNW,338,2.0,3.8,69,0.00,,,0.00,WUHU216HW,2013-07-03 13:02:00,
2013-07-03 06:03:00,59.4,49.2,30.19,NNW,338,1.6,3.8,69,0.00,,,0.00,WUHU216HW,2013-07-03 13:03:00,
2013-07-03 06:05:00,59.4,49.2,30.19,NW,315,2.2,3.8,69,0.00,,,0.00,WUHU216HW,2013-07-03 13:05:00,
2013-07-03 06:07:00,59.4,49.2,30.19,NW,315,2.0,3.8,69,0.00,,,0.00,WUHU216HW,2013-07-03 13:07:00,
2013-07-03 06:08:00,59.4,49.7,30.19,NW,315,1.6,3.8,70,0.00,,,0.00,WUHU216HW,2013-07-03 13:08:00,
2013-07-03 06:11:00,59.4,49.2,30.19,NNW,338,2.0,3.8,69,0.00,,,0.00,WUHU216HW,2013-07-03 13:11:00,
2013-07-03 06:12:00,59.4,49.7,30.19,WNW,293,2.5,2.5,70,0.00,,,0.00,WUHU216HW,2013-07-03 13:12:00,
2013-07-03 06:13:00,59.4,49.7,30.19,WNW,293,2.5,2.5,70,0.00,,,0.00,WUHU216HW,2013-07-03 13:13:00,
2013-07-03 06:16:00,59.4,49.2,30.19,NW,315,0.7,2.5,69,0.00,,,0.00,WUHU216HW,2013-07-03 13:16:00,
2013-07-03 06:17:00,59.6,49.9,30.19,NW,315,1.3,2.5,70,0.00,,,0.00,WUHU216HW,2013-07-03 13:17:00,
2013-07-03 06:18:00,59.6,49.4,30.19,North,0,1.1,2.5,69,0.00,,,0.00,WUHU216HW,2013-07-03 13:18:00,
2013-07-03 06:21:00,59.6,49.4,30.19,WSW,248,1.3,2.5,69,0.00,,,0.00,WUHU216HW,2013-07-03 13:21:00,
2013-07-03 06:22:00,59.6,49.4,30.19,NNW,338,1.6,2.5,69,0.00,,,0.00,WUHU216HW,2013-07-03 13:22:00,
2013-07-03 06:23:00,59.6,49.4,30.19,NW,315,2.7,3.4,69,0.00,,,0.00,WUHU216HW,2013-07-03 13:23:00,
2013-07-03 06:25:00,59.6,49.4,30.19,NNW,338,1.8,3.4,69,0.00,,,0.00,WUHU216HW,2013-07-03 13:25:00,
2013-07-03 06:26:00,59.6,49.4,30.19,NW,315,1.3,3.4,69,0.00,,,0.00,WUHU216HW,2013-07-03 13:26:00,
2013-07-03 06:28:00,59.6,49.4,30.19,WNW,293,0.4,3.4,69,0.00,,,0.00,WUHU216HW,2013-07-03 13:28:00,
2013-07-03 06:30:00,59.8,49.6,30.19,WNW,293,2.9,3.4,69,0.00,,,0.00,WUHU216HW,2013-07-03 13:30:00,
2013-07-03 06:32:00,59.8,49.6,30.19,NW,315,2.5,3.4,69,0.00,,,0.00,WUHU216HW,2013-07-03 13:32:00,
2013-07-03 06:33:00,59.6,49.4,30.19,North,0,1.1,3.4,69,0.00,,,0.00,WUHU216HW,2013-07-03 13:33:00,
2013-07-03 06:35:00,59.8,49.6,30.19,NNW,338,0.4,3.4,69,0.00,,,0.00,WUHU216HW,2013-07-03 13:35:00,
2013-07-03 06:37:00,59.8,49.6,30.19,North,0,4.0,4.3,69,0.00,,,0.00,WUHU216HW,2013-07-03 13:37:00,
2013-07-03 06:38:00,59.8,49.6,30.19,NW,315,1.1,4.3,69,0.00,,,0.00,WUHU216HW,2013-07-03 13:38:00,
2013-07-03 06:41:00,59.9,49.8,30.20,NW,315,3.1,4.3,69,0.00,,,0.00,WUHU216HW,2013-07-03 13:41:00,
2013-07-03 06:42:00,59.9,49.8,30.19,NNW,338,2.2,4.3,69,0.00,,,0.00,WUHU216HW,2013-07-03 13:42:00,
2013-07-03 06:43:00,59.9,49.8,30.19,NW,315,2.7,4.3,69,0.00,,,0.00,WUHU216HW,2013-07-03 13:43:00,
2013-07-03 06:46:00,60.1,50.0,30.19,NNW,338,3.1,4.0,69,0.00,,,0.00,WUHU216HW,2013-07-03 13:46:00,
2013-07-03 06:47:00,60.1,50.0,30.20,NW,315,2.0,4.0,69,0.00,,,0.00,WUHU216HW,2013-07-03 13:47:00,
2013-07-03 06:49:00,60.1,50.0,30.20,NW,315,0.9,3.8,69,0.00,,,0.00,WUHU216HW,2013-07-03 13:49:00,
2013-07-03 06:52:00,60.1,50.0,30.19,NNW,338,1.3,3.8,69,0.00,,,0.00,WUHU216HW,2013-07-03 13:52:00,
2013-07-03 06:53:00,60.1,50.0,30.19,NW,315,1.6,3.8,69,0.00,,,0.00,WUHU216HW,2013-07-03 13:53:00,
2013-07-03 06:54:00,60.1,50.0,30.19,NW,315,1.8,3.8,69,0.00,,,0.00,WUHU216HW,2013-07-03 13:54:00,
2013-07-03 06:57:00,60.3,50.1,30.20,NNW,338,1.1,3.4,69,0.00,,,0.00,WUHU216HW,2013-07-03 13:57:00,
2013-07-03 06:58:00,60.3,50.1,30.20,North,0,3.6,3.6,69,0.00,,,0.00,WUHU216HW,2013-07-03 13:58:00,
2013-07-03 06:59:00,60.3,50.1,30.20,North,0,2.5,3.6,69,0.00,,,0.00,WUHU216HW,2013-07-03 13:59:00,
2013-07-03 07:02:00,60.7,50.5,30.19,NW,315,2.5,3.6,69,0.00,,,0.00,WUHU216HW,2013-07-03 14:02:00,
2013-07-03 07:03:00,60.7,50.5,30.19,West,270,1.1,3.6,69,0.00,,,0.00,WUHU216HW,2013-07-03 14:03:00,
2013-07-03 07:04:00,60.7,50.5,30.19,WNW,293,2.9,3.6,69,0.00,,,0.00,WUHU216HW,2013-07-03 14:04:00,
2013-07-03 07:06:00,60.8,50.3,30.19,NW,315,1.1,3.6,68,0.00,,,0.00,WUHU216HW,2013-07-03 14:06:00,
2013-07-03 07:07:00,60.8,50.7,30.19,NNW,338,2.2,4.0,69,0.00,,,0.00,WUHU216HW,2013-07-03 14:07:00,
2013-07-03 07:08:00,60.8,50.3,30.19,NNW,338,0.9,4.0,68,0.00,,,0.00,WUHU216HW,2013-07-03 14:08:00,
2013-07-03 07:09:00,60.8,50.3,30.19,NNW,338,0.9,4.0,68,0.00,,,0.00,WUHU216HW,2013-07-03 14:09:00,
2013-07-03 07:11:00,60.8,50.7,30.19,NNW,338,3.4,4.0,69,0.00,,,0.00,WUHU216HW,2013-07-03 14:11:00,
2013-07-03 07:13:00,60.8,50.7,30.19,NW,315,2.9,4.0,69,0.00,,,0.00,WUHU216HW,2013-07-03 14:13:00,
2013-07-03 07:14:00,60.8,50.3,30.19,NW,315,3.6,5.4,68,0.00,,,0.00,WUHU216HW,2013-07-03 14:14:00,
2013-07-03 07:16:00,60.8,50.3,30.19,West,270,1.3,5.4,68,0.00,,,0.00,WUHU216HW,2013-07-03 14:16:00,
2013-07-03 07:17:00,60.8,50.3,30.19,West,270,1.3,5.4,68,0.00,,,0.00,WUHU216HW,2013-07-03 14:17:00,
2013-07-03 07:19:00,61.0,50.5,30.18,NW,315,2.2,5.4,68,0.00,,,0.00,WUHU216HW,2013-07-03 14:19:00,
2013-07-03 07:20:00,61.0,50.5,30.18,NNW,338,3.4,5.4,68,0.00,,,0.00,WUHU216HW,2013-07-03 14:20:00,
2013-07-03 07:22:00,61.2,51.0,30.18,NW,315,1.6,5.4,69,0.00,,,0.00,WUHU216HW,2013-07-03 14:22:00,
2013-07-03 07:24:00,61.0,50.5,30.18,NW,315,3.1,4.7,68,0.00,,,0.00,WUHU216HW,2013-07-03 14:24:00,
2013-07-03 07:25:00,61.2,51.0,30.18,WNW,293,1.1,4.7,69,0.00,,,0.00,WUHU216HW,2013-07-03 14:25:00,
2013-07-03 07:27:00,61.2,51.0,30.19,North,0,4.7,4.7,69,0.00,,,0.00,WUHU216HW,2013-07-03 14:27:00,
2013-07-03 07:30:00,61.4,51.2,30.19,WNW,293,1.6,4.7,69,0.00,,,0.00,WUHU216HW,2013-07-03 14:30:00,
2013-07-03 07:32:00,61.4,50.8,30.19,NNE,23,1.8,4.7,68,0.00,,,0.00,WUHU216HW,2013-07-03 14:32:00,
2013-07-03 07:35:00,61.6,50.9,30.19,NNW,338,1.6,4.7,68,0.00,,,0.00,WUHU216HW,2013-07-03 14:35:00,
2013-07-03 07:37:00,61.6,50.9,30.19,North,0,0.9,4.7,68,0.00,,,0.00,WUHU216HW,2013-07-03 14:37:00,
2013-07-03 07:38:00,61.6,50.9,30.19,NNW,338,1.1,4.0,68,0.00,,,0.00,WUHU216HW,2013-07-03 14:38:00,
2013-07-03 07:40:00,61.6,50.9,30.19,North,0,1.6,4.0,68,0.00,,,0.00,WUHU216HW,2013-07-03 14:40:00,
2013-07-03 07:41:00,61.6,50.9,30.19,NW,315,2.0,4.0,68,0.00,,,0.00,WUHU216HW,2013-07-03 14:41:00,
2013-07-03 07:42:00,61.6,50.9,30.19,NW,315,1.3,4.0,68,0.00,,,0.00,WUHU216HW,2013-07-03 14:42:00,
2013-07-03 07:45:00,61.7,51.5,30.19,West,270,0.9,2.0,69,0.00,,,0.00,WUHU216HW,2013-07-03 14:45:00,
2013-07-03 07:47:00,61.7,51.1,30.19,SW,225,1.3,2.0,68,0.00,,,0.00,WUHU216HW,2013-07-03 14:47:00,
2013-07-03 07:50:00,61.9,51.3,30.19,WNW,293,0.0,2.0,68,0.00,,,0.00,WUHU216HW,2013-07-03 14:50:00,
2013-07-03 07:51:00,61.9,51.3,30.19,WNW,293,0.0,2.0,68,0.00,,,0.00,WUHU216HW,2013-07-03 14:51:00,
2013-07-03 07:52:00,62.3,51.6,30.19,NW,315,1.6,1.8,68,0.00,,,0.00,WUHU216HW,2013-07-03 14:52:00,
2013-07-03 07:53:00,62.3,51.6,30.19,NW,315,1.8,1.8,68,0.00,,,0.00,WUHU216HW,2013-07-03 14:53:00,
2013-07-03 07:56:00,62.6,51.9,30.19,NW,315,2.2,2.2,68,0.00,,,0.00,WUHU216HW,2013-07-03 14:56:00,
2013-07-03 07:58:00,62.6,51.5,30.20,NW,315,2.0,2.5,67,0.00,,,0.00,WUHU216HW,2013-07-03 14:58:00,
2013-07-03 08:00:00,62.8,51.7,30.20,NW,315,1.3,2.5,67,0.00,,,0.00,WUHU216HW,2013-07-03 15:00:00,
2013-07-03 08:01:00,63.0,51.8,30.20,NW,315,1.8,2.5,67,0.00,,,0.00,WUHU216HW,2013-07-03 15:01:00,
2013-07-03 08:02:00,63.0,51.8,30.20,NW,315,1.8,2.5,67,0.00,,,0.00,WUHU216HW,2013-07-03 15:02:00,
2013-07-03 08:03:00,63.0,51.8,30.20,NW,315,1.8,2.5,67,0.00,,,0.00,WUHU216HW,2013-07-03 15:03:00,
2013-07-03 08:06:00,63.2,51.6,30.19,NW,315,0.7,2.5,66,0.00,,,0.00,WUHU216HW,2013-07-03 15:06:00,
2013-07-03 08:08:00,63.2,51.6,30.20,WNW,293,0.0,2.5,66,0.00,,,0.00,WUHU216HW,2013-07-03 15:08:00,
2013-07-03 08:11:00,63.4,51.8,30.20,NW,315,2.0,2.5,66,0.00,,,0.00,WUHU216HW,2013-07-03 15:11:00,
2013-07-03 08:13:00,63.4,51.8,30.20,NW,315,1.3,2.5,66,0.00,,,0.00,WUHU216HW,2013-07-03 15:13:00,
2013-07-03 08:15:00,63.5,51.9,30.20,NNE,23,1.1,2.5,66,0.00,,,0.00,WUHU216HW,2013-07-03 15:15:00,
2013-07-03 08:17:00,63.5,51.6,30.20,NNW,338,0.2,2.5,65,0.00,,,0.00,WUHU216HW,2013-07-03 15:17:00,
2013-07-03 08:18:00,63.4,51.4,30.20,WNW,293,1.3,2.5,65,0.00,,,0.00,WUHU216HW,2013-07-03 15:18:00,
2013-07-03 08:20:00,63.5,51.9,30.19,NNW,338,1.1,3.1,66,0.00,,,0.00,WUHU216HW,2013-07-03 15:20:00,
2013-07-03 08:22:00,63.4,51.4,30.19,North,0,1.8,3.1,65,0.00,,,0.00,WUHU216HW,2013-07-03 15:22:00,
2013-07-03 08:23:00,63.4,51.4,30.19,North,0,1.1,3.1,65,0.00,,,0.00,WUHU216HW,2013-07-03 15:23:00,
2013-07-03 08:25:00,63.2,51.2,30.19,WNW,293,1.6,3.1,65,0.00,,,0.00,WUHU216HW,2013-07-03 15:25:00,
2013-07-03 08:27:00,63.0,51.0,30.19,WNW,293,2.5,3.1,65,0.00,,,0.00,WUHU216HW,2013-07-03 15:27:00,
2013-07-03 08:28:00,63.0,51.0,30.19,WNW,293,1.3,3.1,65,0.00,,,0.00,WUHU216HW,2013-07-03 15:28:00,
2013-07-03 08:29:00,63.0,51.4,30.19,NW,315,2.2,3.1,66,0.00,,,0.00,WUHU216HW,2013-07-03 15:29:00,
2013-07-03 08:30:00,62.8,51.3,30.19,WNW,293,1.1,2.5,66,0.00,,,0.00,WUHU216HW,2013-07-03 15:30:00,
2013-07-03 08:32:00,62.8,51.3,30.19,NW,315,0.0,2.5,66,0.00,,,0.00,WUHU216HW,2013-07-03 15:32:00,
2013-07-03 08:34:00,63.0,51.8,30.19,NW,315,1.1,2.5,67,0.00,,,0.00,WUHU216HW,2013-07-03 15:34:00,
2013-07-03 08:35:00,63.2,52.0,30.19,NW,315,1.3,2.5,67,0.00,,,0.00,WUHU216HW,2013-07-03 15:35:00,
2013-07-03 08:38:00,63.5,52.4,30.19,NW,315,1.3,2.5,67,0.00,,,0.00,WUHU216HW,2013-07-03 15:38:00,
2013-07-03 08:39:00,63.9,52.3,30.19,WNW,293,1.8,2.2,66,0.00,,,0.00,WUHU216HW,2013-07-03 15:39:00,
2013-07-03 08:40:00,64.1,52.5,30.19,WNW,293,1.8,2.2,66,0.00,,,0.00,WUHU216HW,2013-07-03 15:40:00,
2013-07-03 08:43:00,64.8,52.8,30.19,WNW,293,1.1,2.2,65,0.00,,,0.00,WUHU216HW,2013-07-03 15:43:00,
2013-07-03 08:44:00,65.2,53.1,30.19,West,270,1.1,2.2,65,0.00,,,0.00,WUHU216HW,2013-07-03 15:44:00,
2013-07-03 08:45:00,65.2,53.1,30.19,WNW,293,1.8,2.2,65,0.00,,,0.00,WUHU216HW,2013-07-03 15:45:00,
2013-07-03 08:48:00,65.9,53.7,30.19,NW,315,0.4,2.0,65,0.00,,,0.00,WUHU216HW,2013-07-03 15:48:00,
2013-07-03 08:49:00,66.2,54.1,30.19,WNW,293,0.7,2.0,65,0.00,,,0.00,WUHU216HW,2013-07-03 15:49:00,
2013-07-03 08:50:00,66.2,54.1,30.19,WNW,293,0.7,2.0,65,0.00,,,0.00,WUHU216HW,2013-07-03 15:50:00,
2013-07-03 08:52:00,66.6,54.0,30.19,WNW,293,0.7,2.0,64,0.00,,,0.00,WUHU216HW,2013-07-03 15:52:00,
2013-07-03 08:56:00,68.0,54.9,30.19,NNW,338,0.0,2.5,63,0.00,,,0.00,WUHU216HW,2013-07-03 15:56:00,
2013-07-03 08:57:00,68.0,54.9,30.19,NNW,338,0.4,2.5,63,0.00,,,0.00,WUHU216HW,2013-07-03 15:57:00,
2013-07-03 08:58:00,68.4,54.9,30.19,NW,315,0.7,2.5,62,0.00,,,0.00,WUHU216HW,2013-07-03 15:58:00,
2013-07-03 09:01:00,69.5,55.5,30.19,NW,315,1.3,2.5,61,0.00,,,0.00,WUHU216HW,2013-07-03 16:01:00,
2013-07-03 09:02:00,69.7,55.7,30.19,WNW,293,1.8,2.5,61,0.00,,,0.00,WUHU216HW,2013-07-03 16:02:00,
2013-07-03 09:03:00,70.0,55.1,30.19,NNW,338,0.4,2.5,59,0.00,,,0.00,WUHU216HW,2013-07-03 16:03:00,
2013-07-03 09:06:00,70.4,55.9,30.19,NNW,338,0.9,2.0,60,0.00,,,0.00,WUHU216HW,2013-07-03 16:06:00,
2013-07-03 09:07:00,70.6,56.1,30.19,WNW,293,1.1,2.0,60,0.00,,,0.00,WUHU216HW,2013-07-03 16:07:00,
2013-07-03 09:08:00,70.7,55.7,30.19,WNW,293,1.1,2.0,59,0.00,,,0.00,WUHU216HW,2013-07-03 16:08:00,
2013-07-03 09:11:00,71.3,56.3,30.19,WNW,293,0.0,2.0,59,0.00,,,0.00,WUHU216HW,2013-07-03 16:11:00,
2013-07-03 09:12:00,71.6,56.1,30.19,West,270,0.4,2.0,58,0.00,,,0.00,WUHU216HW,2013-07-03 16:12:00,
2013-07-03 09:13:00,72.0,55.9,30.19,NW,315,2.0,2.5,57,0.00,,,0.00,WUHU216HW,2013-07-03 16:13:00,
2013-07-03 09:14:00,72.0,55.9,30.19,NW,315,2.0,2.5,57,0.00,,,0.00,WUHU216HW,2013-07-03 16:14:00,
2013-07-03 09:16:00,72.0,55.9,30.19,West,270,2.5,2.5,57,0.00,,,0.00,WUHU216HW,2013-07-03 16:16:00,
2013-07-03 09:18:00,72.2,56.1,30.19,WNW,293,1.6,2.5,57,0.00,,,0.00,WUHU216HW,2013-07-03 16:18:00,
2013-07-03 09:19:00,72.7,56.5,30.19,WNW,293,1.1,2.5,57,0.00,,,0.00,WUHU216HW,2013-07-03 16:19:00,
2013-07-03 09:22:00,73.3,57.0,30.19,WNW,293,1.8,2.5,57,0.00,,,0.00,WUHU216HW,2013-07-03 16:22:00,
2013-07-03 09:23:00,73.8,57.5,30.19,NW,315,1.1,2.5,57,0.00,,,0.00,WUHU216HW,2013-07-03 16:23:00,
2013-07-03 09:24:00,74.0,57.3,30.19,NW,315,0.4,2.5,56,0.00,,,0.00,WUHU216HW,2013-07-03 16:24:00,
2013-07-03 09:27:00,74.5,56.7,30.19,NW,315,0.0,2.5,54,0.00,,,0.00,WUHU216HW,2013-07-03 16:27:00,
2013-07-03 09:28:00,74.9,57.6,30.19,NW,315,0.0,2.0,55,0.00,,,0.00,WUHU216HW,2013-07-03 16:28:00,
2013-07-03 09:29:00,75.2,58.0,30.18,NNW,338,1.3,2.0,55,0.00,,,0.00,WUHU216HW,2013-07-03 16:29:00,
2013-07-03 09:32:00,76.0,56.6,30.18,WNW,293,2.7,2.7,51,0.00,,,0.00,WUHU216HW,2013-07-03 16:32:00,
2013-07-03 09:33:00,76.3,57.4,30.18,West,270,1.3,2.7,52,0.00,,,0.00,WUHU216HW,2013-07-03 16:33:00,
2013-07-03 09:34:00,76.3,57.4,30.18,NW,315,1.1,2.7,52,0.00,,,0.00,WUHU216HW,2013-07-03 16:34:00,
2013-07-03 09:37:00,77.0,56.4,30.18,NW,315,2.0,2.7,49,0.00,,,0.00,WUHU216HW,2013-07-03 16:37:00,
2013-07-03 09:38:00,77.0,57.1,30.18,NW,315,1.6,2.7,50,0.00,,,0.00,WUHU216HW,2013-07-03 16:38:00,
2013-07-03 09:39:00,77.0,57.1,30.18,WNW,293,2.0,2.7,50,0.00,,,0.00,WUHU216HW,2013-07-03 16:39:00,
2013-07-03 09:43:00,77.8,57.1,30.18,West,270,0.9,2.5,49,0.00,,,0.00,WUHU216HW,2013-07-03 16:43:00,
2013-07-03 09:44:00,77.9,55.5,30.18,WSW,248,1.1,2.5,46,0.00,,,0.00,WUHU216HW,2013-07-03 16:44:00,
2013-07-03 09:48:00,78.3,57.6,30.18,NW,315,1.1,2.5,49,0.00,,,0.00,WUHU216HW,2013-07-03 16:48:00,
2013-07-03 09:49:00,78.7,58.5,30.18,NW,315,0.4,2.5,50,0.00,,,0.00,WUHU216HW,2013-07-03 16:49:00,
2013-07-03 09:53:00,79.2,55.4,30.18,WSW,248,2.5,2.5,44,0.00,,,0.00,WUHU216HW,2013-07-03 16:53:00,
2013-07-03 09:54:00,79.2,56.0,30.18,SW,225,2.0,2.5,45,0.00,,,0.00,WUHU216HW,2013-07-03 16:54:00,
2013-07-03 09:55:00,79.2,56.5,30.18,WSW,248,1.3,2.5,46,0.00,,,0.00,WUHU216HW,2013-07-03 16:55:00,
2013-07-03 09:58:00,80.5,57.7,30.18,WSW,248,1.8,2.5,46,0.00,,,0.00,WUHU216HW,2013-07-03 16:58:00,
2013-07-03 09:59:00,81.0,57.0,30.18,WSW,248,1.6,2.5,44,0.00,,,0.00,WUHU216HW,2013-07-03 16:59:00,
2013-07-03 10:00:00,81.2,57.7,30.18,SW,225,1.3,2.5,45,0.00,,,0.00,WUHU216HW,2013-07-03 17:00:00,
2013-07-03 10:03:00,81.4,56.1,30.18,West,270,1.8,2.5,42,0.00,,,0.00,WUHU216HW,2013-07-03 17:03:00,
2013-07-03 10:04:00,81.2,56.5,30.18,West,270,0.9,2.2,43,0.00,,,0.00,WUHU216HW,2013-07-03 17:04:00,
2013-07-03 10:05:00,81.0,57.0,30.18,WNW,293,1.1,2.0,44,0.00,,,0.00,WUHU216HW,2013-07-03 17:05:00,
2013-07-03 10:08:00,81.9,59.0,30.18,NW,315,0.7,2.0,46,0.00,,,0.00,WUHU216HW,2013-07-03 17:08:00,
2013-07-03 10:09:00,82.3,58.7,30.18,WNW,293,0.7,2.0,45,0.00,,,0.00,WUHU216HW,2013-07-03 17:09:00,
2013-07-03 10:10:00,82.6,59.1,30.18,NW,315,0.4,2.0,45,0.00,,,0.00,WUHU216HW,2013-07-03 17:10:00,
2013-07-03 10:14:00,84.6,60.3,30.18,West,270,1.3,1.6,44,0.00,,,0.00,WUHU216HW,2013-07-03 17:14:00,
2013-07-03 10:15:00,85.1,60.1,30.18,WNW,293,2.2,2.2,43,0.00,,,0.00,WUHU216HW,2013-07-03 17:15:00,
2013-07-03 10:16:00,85.3,60.3,30.18,WNW,293,1.6,2.2,43,0.00,,,0.00,WUHU216HW,2013-07-03 17:16:00,
2013-07-03 10:19:00,86.6,60.8,30.18,NW,315,0.0,2.2,42,0.00,,,0.00,WUHU216HW,2013-07-03 17:19:00,
2013-07-03 10:20:00,86.8,60.9,30.18,WNW,293,0.0,2.2,42,0.00,,,0.00,WUHU216HW,2013-07-03 17:20:00,
2013-07-03 10:21:00,86.9,61.7,30.18,WNW,293,0.4,2.2,43,0.00,,,0.00,WUHU216HW,2013-07-03 17:21:00,
2013-07-03 10:24:00,86.8,58.9,30.18,NW,315,0.9,2.2,39,0.00,,,0.00,WUHU216HW,2013-07-03 17:24:00,
2013-07-03 10:25:00,86.8,58.9,30.18,NW,315,0.9,2.2,39,0.00,,,0.00,WUHU216HW,2013-07-03 17:25:00,
2013-07-03 10:26:00,86.9,60.5,30.18,NW,315,1.3,1.8,41,0.00,,,0.00,WUHU216HW,2013-07-03 17:26:00,
2013-07-03 10:30:00,87.7,60.5,30.18,WNW,293,1.1,2.0,40,0.00,,,0.00,WUHU216HW,2013-07-03 17:30:00,
2013-07-03 10:31:00,87.8,60.7,30.17,WNW,293,1.3,2.0,40,0.00,,,0.00,WUHU216HW,2013-07-03 17:31:00,
2013-07-03 10:35:00,87.5,58.7,30.18,NW,315,2.5,2.5,38,0.00,,,0.00,WUHU216HW,2013-07-03 17:35:00,
2013-07-03 10:36:00,87.1,59.2,30.17,WNW,293,1.1,2.5,39,0.00,,,0.00,WUHU216HW,2013-07-03 17:36:00,
2013-07-03 10:40:00,85.7,57.2,30.17,WNW,293,1.1,2.5,38,0.00,,,0.00,WUHU216HW,2013-07-03 17:40:00,
2013-07-03 10:41:00,85.3,56.8,30.18,WNW,293,1.6,2.5,38,0.00,,,0.00,WUHU216HW,2013-07-03 17:41:00,
2013-07-03 10:45:00,83.2,55.6,30.17,NW,315,1.8,2.0,39,0.00,,,0.00,WUHU216HW,2013-07-03 17:45:00,
2013-07-03 10:46:00,82.8,55.4,30.18,NW,315,2.0,2.0,39,0.00,,,0.00,WUHU216HW,2013-07-03 17:46:00,
2013-07-03 10:47:00,82.4,55.0,30.18,NW,315,1.8,2.0,39,0.00,,,0.00,WUHU216HW,2013-07-03 17:47:00,
2013-07-03 10:51:00,81.2,55.3,30.17,WNW,293,1.1,2.0,41,0.00,,,0.00,WUHU216HW,2013-07-03 17:51:00,
2013-07-03 10:52:00,81.2,55.9,30.17,WNW,293,1.1,2.0,42,0.00,,,0.00,WUHU216HW,2013-07-03 17:52:00,
2013-07-03 10:53:00,81.4,56.1,30.17,West,270,2.2,2.2,42,0.00,,,0.00,WUHU216HW,2013-07-03 17:53:00,
2013-07-03 10:56:00,82.4,57.1,30.17,WNW,293,2.7,2.7,42,0.00,,,0.00,WUHU216HW,2013-07-03 17:56:00,
2013-07-03 10:57:00,83.2,57.7,30.17,West,270,2.7,2.7,42,0.00,,,0.00,WUHU216HW,2013-07-03 17:57:00,
2013-07-03 10:58:00,83.5,58.1,30.17,WNW,293,1.8,2.7,42,0.00,,,0.00,WUHU216HW,2013-07-03 17:58:00,
2013-07-03 11:01:00,84.8,58.5,30.17,WNW,293,0.9,2.7,41,0.00,,,0.00,WUHU216HW,2013-07-03 18:01:00,
2013-07-03 11:02:00,85.3,58.4,30.17,NW,315,1.3,2.7,40,0.00,,,0.00,WUHU216HW,2013-07-03 18:02:00,
2013-07-03 11:03:00,85.7,57.2,30.17,NW,315,1.8,2.7,38,0.00,,,0.00,WUHU216HW,2013-07-03 18:03:00,
2013-07-03 11:06:00,85.7,57.2,30.17,NNW,338,0.9,2.7,38,0.00,,,0.00,WUHU216HW,2013-07-03 18:06:00,
2013-07-03 11:07:00,85.9,58.1,30.17,NNW,338,1.3,2.7,39,0.00,,,0.00,WUHU216HW,2013-07-03 18:07:00,
2013-07-03 11:08:00,86.2,58.4,30.17,NW,315,1.8,2.5,39,0.00,,,0.00,WUHU216HW,2013-07-03 18:08:00,
2013-07-03 11:11:00,86.6,57.2,30.17,NNW,338,0.2,2.7,37,0.00,,,0.00,WUHU216HW,2013-07-03 18:11:00,
2013-07-03 11:12:00,86.6,55.5,30.17,NNW,338,1.1,2.7,35,0.00,,,0.00,WUHU216HW,2013-07-03 18:12:00,
2013-07-03 11:13:00,86.6,55.5,30.17,NNW,338,1.1,2.7,35,0.00,,,0.00,WUHU216HW,2013-07-03 18:13:00,
2013-07-03 11:14:00,86.4,57.0,30.17,NNW,338,0.4,2.7,37,0.00,,,0.00,WUHU216HW,2013-07-03 18:14:00,
2013-07-03 11:16:00,87.3,57.0,30.17,NW,315,2.9,2.9,36,0.00,,,0.00,WUHU216HW,2013-07-03 18:16:00,
2013-07-03 11:18:00,87.3,55.4,30.17,NW,315,2.7,2.9,34,0.00,,,0.00,WUHU216HW,2013-07-03 18:18:00,
2013-07-03 11:19:00,87.5,58.7,30.17,WNW,293,1.1,2.9,38,0.00,,,0.00,WUHU216HW,2013-07-03 18:19:00,
2013-07-03 11:22:00,87.5,57.2,30.17,WNW,293,2.0,2.9,36,0.00,,,0.00,WUHU216HW,2013-07-03 18:22:00,
2013-07-03 11:23:00,87.5,58.7,30.17,WNW,293,1.8,2.9,38,0.00,,,0.00,WUHU216HW,2013-07-03 18:23:00,
2013-07-03 11:24:00,87.5,58.7,30.17,WNW,293,1.8,2.9,38,0.00,,,0.00,WUHU216HW,2013-07-03 18:24:00,
2013-07-03 11:27:00,87.8,57.4,30.17,NW,315,3.4,3.4,36,0.00,,,0.00,WUHU216HW,2013-07-03 18:27:00,
2013-07-03 11:28:00,87.5,55.5,30.17,West,270,1.8,3.4,34,0.00,,,0.00,WUHU216HW,2013-07-03 18:28:00,
2013-07-03 11:29:00,87.5,57.2,30.17,NW,315,2.0,3.4,36,0.00,,,0.00,WUHU216HW,2013-07-03 18:29:00,
2013-07-03 11:32:00,86.6,55.5,30.17,NW,315,3.4,3.4,35,0.00,,,0.00,WUHU216HW,2013-07-03 18:32:00,
2013-07-03 11:33:00,86.4,56.2,30.17,NW,315,1.8,3.4,36,0.00,,,0.00,WUHU216HW,2013-07-03 18:33:00,
2013-07-03 11:34:00,86.0,56.7,30.17,WNW,293,2.5,3.4,37,0.00,,,0.00,WUHU216HW,2013-07-03 18:34:00,
2013-07-03 11:38:00,85.1,55.9,30.17,NW,315,1.8,3.4,37,0.00,,,0.00,WUHU216HW,2013-07-03 18:38:00,
2013-07-03 11:39:00,85.0,56.5,30.17,WNW,293,1.1,3.4,38,0.00,,,0.00,WUHU216HW,2013-07-03 18:39:00,
2013-07-03 11:40:00,85.0,57.2,30.17,WNW,293,1.8,3.4,39,0.00,,,0.00,WUHU216HW,2013-07-03 18:40:00,
2013-07-03 11:43:00,85.9,57.3,30.17,West,270,2.5,3.4,38,0.00,,,0.00,WUHU216HW,2013-07-03 18:43:00,
2013-07-03 11:44:00,86.2,57.6,30.17,WNW,293,2.7,3.4,38,0.00,,,0.00,WUHU216HW,2013-07-03 18:44:00,
2013-07-03 11:45:00,86.8,58.1,30.17,WNW,293,1.8,3.4,38,0.00,,,0.00,WUHU216HW,2013-07-03 18:45:00,
2013-07-03 11:48:00,88.2,59.3,30.17,WNW,293,2.2,3.4,38,0.00,,,0.00,WUHU216HW,2013-07-03 18:48:00,
2013-07-03 11:49:00,88.4,59.5,30.17,WNW,293,1.1,3.4,38,0.00,,,0.00,WUHU216HW,2013-07-03 18:49:00,
2013-07-03 11:50:00,88.7,59.8,30.17,WNW,293,1.8,3.4,38,0.00,,,0.00,WUHU216HW,2013-07-03 18:50:00,
2013-07-03 11:54:00,89.8,58.3,30.16,West,270,4.0,4.0,35,0.00,,,0.00,WUHU216HW,2013-07-03 18:54:00,
2013-07-03 11:55:00,90.0,59.2,30.17,NW,315,2.2,4.0,36,0.00,,,0.00,WUHU216HW,2013-07-03 18:55:00,
2013-07-03 11:59:00,90.0,58.5,30.16,WNW,293,1.1,4.0,35,0.00,,,0.00,WUHU216HW,2013-07-03 18:59:00,
2013-07-03 12:00:00,89.8,58.3,30.16,WNW,293,3.4,4.0,35,0.00,,,0.00,WUHU216HW,2013-07-03 19:00:00,
2013-07-03 12:01:00,89.8,58.3,30.16,NW,315,2.5,4.0,35,0.00,,,0.00,WUHU216HW,2013-07-03 19:01:00,
2013-07-03 12:04:00,89.5,58.0,30.16,NW,315,2.0,4.0,35,0.00,,,0.00,WUHU216HW,2013-07-03 19:04:00,
2013-07-03 12:05:00,89.3,58.6,30.16,WNW,293,2.2,3.6,36,0.00,,,0.00,WUHU216HW,2013-07-03 19:05:00,
2013-07-03 12:06:00,89.3,58.6,30.16,WNW,293,1.8,3.6,36,0.00,,,0.00,WUHU216HW,2013-07-03 19:06:00,
2013-07-03 12:09:00,89.1,57.7,30.16,WNW,293,4.7,5.6,35,0.00,,,0.00,WUHU216HW,2013-07-03 19:09:00,
2013-07-03 12:10:00,88.9,57.5,30.16,WNW,293,4.3,5.6,35,0.00,,,0.00,WUHU216HW,2013-07-03 19:10:00,
2013-07-03 12:11:00,88.9,57.5,30.16,WNW,293,3.8,5.6,35,0.00,,,0.00,WUHU216HW,2013-07-03 19:11:00,
2013-07-03 12:14:00,88.9,58.3,30.16,West,270,1.8,5.6,36,0.00,,,0.00,WUHU216HW,2013-07-03 19:14:00,
2013-07-03 12:16:00,88.9,58.3,30.16,West,270,2.9,5.6,36,0.00,,,0.00,WUHU216HW,2013-07-03 19:16:00,
2013-07-03 12:20:00,88.6,58.1,30.16,West,270,2.7,5.4,36,0.00,,,0.00,WUHU216HW,2013-07-03 19:20:00,
2013-07-03 12:21:00,88.6,58.1,30.16,WNW,293,2.5,4.5,36,0.00,,,0.00,WUHU216HW,2013-07-03 19:21:00,
2013-07-03 12:25:00,89.1,58.5,30.16,West,270,1.8,4.5,36,0.00,,,0.00,WUHU216HW,2013-07-03 19:25:00,
2013-07-03 12:26:00,89.1,58.5,30.16,West,270,3.4,4.5,36,0.00,,,0.00,WUHU216HW,2013-07-03 19:26:00,
2013-07-03 12:31:00,88.9,60.0,30.16,West,270,4.0,4.9,38,0.00,,,0.00,WUHU216HW,2013-07-03 19:31:00,
2013-07-03 12:32:00,88.9,58.3,30.16,West,270,5.1,5.1,36,0.00,,,0.00,WUHU216HW,2013-07-03 19:32:00,
2013-07-03 12:33:00,88.9,58.3,30.16,West,270,4.0,5.1,36,0.00,,,0.00,WUHU216HW,2013-07-03 19:33:00,
2013-07-03 12:36:00,88.9,58.3,30.16,WNW,293,3.8,5.1,36,0.00,,,0.00,WUHU216HW,2013-07-03 19:36:00,
2013-07-03 12:37:00,88.9,60.0,30.16,WNW,293,3.6,5.1,38,0.00,,,0.00,WUHU216HW,2013-07-03 19:37:00,
2013-07-03 12:38:00,88.7,58.1,30.16,West,270,4.7,5.1,36,0.00,,,0.00,WUHU216HW,2013-07-03 19:38:00,
2013-07-03 12:41:00,88.7,59.0,30.16,WNW,293,3.4,5.1,37,0.00,,,0.00,WUHU216HW,2013-07-03 19:41:00,
2013-07-03 12:42:00,88.7,59.0,30.16,NW,315,4.0,5.1,37,0.00,,,0.00,WUHU216HW,2013-07-03 19:42:00,
2013-07-03 12:43:00,88.2,60.1,30.16,NW,315,4.7,5.4,39,0.00,,,0.00,WUHU216HW,2013-07-03 19:43:00,
2013-07-03 12:46:00,85.0,57.2,30.16,NW,315,4.9,6.0,39,0.00,,,0.00,WUHU216HW,2013-07-03 19:46:00,
2013-07-03 12:47:00,85.0,57.2,30.16,NW,315,4.9,6.0,39,0.00,,,0.00,WUHU216HW,2013-07-03 19:47:00,
2013-07-03 12:48:00,83.9,57.1,30.16,NW,315,4.7,6.0,40,0.00,,,0.00,WUHU216HW,2013-07-03 19:48:00,
2013-07-03 12:51:00,82.8,57.3,30.16,NW,315,4.9,6.0,42,0.00,,,0.00,WUHU216HW,2013-07-03 19:51:00,
2013-07-03 12:52:00,82.6,56.6,30.16,NW,315,4.9,6.0,41,0.00,,,0.00,WUHU216HW,2013-07-03 19:52:00,
2013-07-03 12:53:00,82.1,56.1,30.16,NW,315,4.0,6.0,41,0.00,,,0.00,WUHU216HW,2013-07-03 19:53:00,
2013-07-03 12:57:00,81.5,57.4,30.16,NW,315,3.4,5.1,44,0.00,,,0.00,WUHU216HW,2013-07-03 19:57:00,
2013-07-03 12:58:00,81.7,57.6,30.16,WNW,293,3.4,4.9,44,0.00,,,0.00,WUHU216HW,2013-07-03 19:58:00,
2013-07-03 13:02:00,82.3,57.5,30.16,NW,315,4.7,4.7,43,0.00,,,0.00,WUHU216HW,2013-07-03 20:02:00,
2013-07-03 13:03:00,81.9,57.2,30.16,NW,315,4.0,4.7,43,0.00,,,0.00,WUHU216HW,2013-07-03 20:03:00,
2013-07-03 13:07:00,81.9,57.8,30.16,NW,315,4.5,4.9,44,0.00,,,0.00,WUHU216HW,2013-07-03 20:07:00,
2013-07-03 13:09:00,81.9,58.4,30.16,NW,315,6.7,6.7,45,0.00,,,0.00,WUHU216HW,2013-07-03 20:09:00,
2013-07-03 13:12:00,81.0,57.6,30.16,NW,315,5.1,6.7,45,0.00,,,0.00,WUHU216HW,2013-07-03 20:12:00,
2013-07-03 13:14:00,80.8,56.8,30.16,NW,315,4.7,6.7,44,0.00,,,0.00,WUHU216HW,2013-07-03 20:14:00,
2013-07-03 13:17:00,80.1,56.2,30.16,NNW,338,4.9,6.7,44,0.00,,,0.00,WUHU216HW,2013-07-03 20:17:00,
2013-07-03 13:18:00,79.9,57.3,30.16,NW,315,4.7,6.7,46,0.00,,,0.00,WUHU216HW,2013-07-03 20:18:00,
2013-07-03 13:19:00,79.7,56.4,30.16,NW,315,3.4,6.3,45,0.00,,,0.00,WUHU216HW,2013-07-03 20:19:00,
2013-07-03 13:22:00,79.9,56.6,30.16,WNW,293,1.8,6.3,45,0.00,,,0.00,WUHU216HW,2013-07-03 20:22:00,
2013-07-03 13:23:00,79.9,56.6,30.16,WNW,293,1.8,6.3,45,0.00,,,0.00,WUHU216HW,2013-07-03 20:23:00,
2013-07-03 13:24:00,80.6,56.6,30.16,NNW,338,5.8,6.9,44,0.00,,,0.00,WUHU216HW,2013-07-03 20:24:00,
2013-07-03 13:27:00,80.8,56.8,30.16,WNW,293,2.5,6.9,44,0.00,,,0.00,WUHU216HW,2013-07-03 20:27:00,
2013-07-03 13:28:00,81.0,57.6,30.16,WNW,293,4.3,6.9,45,0.00,,,0.00,WUHU216HW,2013-07-03 20:28:00,
2013-07-03 13:30:00,81.2,56.5,30.16,NW,315,4.0,6.9,43,0.00,,,0.00,WUHU216HW,2013-07-03 20:30:00,
2013-07-03 13:33:00,81.5,55.6,30.16,NW,315,3.8,6.9,41,0.00,,,0.00,WUHU216HW,2013-07-03 20:33:00,
2013-07-03 13:35:00,81.4,56.1,30.16,NW,315,6.3,6.7,42,0.00,,,0.00,WUHU216HW,2013-07-03 20:35:00,
2013-07-03 13:38:00,80.3,56.4,30.16,NW,315,4.7,6.9,44,0.00,,,0.00,WUHU216HW,2013-07-03 20:38:00,
2013-07-03 13:40:00,79.7,55.8,30.16,WNW,293,3.8,6.9,44,0.00,,,0.00,WUHU216HW,2013-07-03 20:40:00,
2013-07-03 13:43:00,79.6,56.9,30.16,NW,315,4.5,6.9,46,0.00,,,0.00,WUHU216HW,2013-07-03 20:43:00,
2013-07-03 13:46:00,79.4,56.7,30.16,WNW,293,3.1,6.5,46,0.00,,,0.00,WUHU216HW,2013-07-03 20:46:00,
2013-07-03 13:48:00,79.6,56.9,30.16,NNW,338,4.3,6.0,46,0.00,,,0.00,WUHU216HW,2013-07-03 20:48:00,
2013-07-03 13:49:00,79.6,56.9,30.16,NW,315,5.6,6.0,46,0.00,,,0.00,WUHU216HW,2013-07-03 20:49:00,
2013-07-03 13:51:00,79.4,56.1,30.16,NW,315,5.4,5.6,45,0.00,,,0.00,WUHU216HW,2013-07-03 20:51:00,
2013-07-03 13:53:00,78.7,55.4,30.16,NW,315,7.6,7.6,45,0.00,,,0.00,WUHU216HW,2013-07-03 20:53:00,
2013-07-03 13:54:00,78.3,57.0,30.16,NW,315,6.3,7.6,48,0.00,,,0.00,WUHU216HW,2013-07-03 20:54:00,
2013-07-03 13:56:00,77.9,56.1,30.16,NW,315,4.7,7.6,47,0.00,,,0.00,WUHU216HW,2013-07-03 20:56:00,
2013-07-03 13:58:00,77.9,56.6,30.16,NW,315,5.1,7.6,48,0.00,,,0.00,WUHU216HW,2013-07-03 20:58:00,
2013-07-03 13:59:00,78.1,56.2,30.16,NW,315,4.0,7.6,47,0.00,,,0.00,WUHU216HW,2013-07-03 20:59:00,
2013-07-03 14:00:00,78.1,56.2,30.15,NW,315,3.6,7.6,47,0.00,,,0.00,WUHU216HW,2013-07-03 21:00:00,
2013-07-03 14:01:00,78.5,55.9,30.16,NW,315,6.0,7.6,46,0.00,,,0.00,WUHU216HW,2013-07-03 21:01:00,
2013-07-03 14:03:00,78.5,55.9,30.16,NW,315,4.3,6.5,46,0.00,,,0.00,WUHU216HW,2013-07-03 21:03:00,
2013-07-03 14:04:00,78.5,56.5,30.16,NW,315,5.4,6.5,47,0.00,,,0.00,WUHU216HW,2013-07-03 21:04:00,
2013-07-03 14:05:00,78.5,56.5,30.16,WNW,293,5.6,6.5,47,0.00,,,0.00,WUHU216HW,2013-07-03 21:05:00,
2013-07-03 14:06:00,78.1,55.0,30.15,NW,315,5.4,6.5,45,0.00,,,0.00,WUHU216HW,2013-07-03 21:06:00,
2013-07-03 14:08:00,78.1,57.4,30.16,NW,315,6.3,6.7,49,0.00,,,0.00,WUHU216HW,2013-07-03 21:08:00,
2013-07-03 14:09:00,77.9,57.2,30.16,NW,315,6.7,6.7,49,0.00,,,0.00,WUHU216HW,2013-07-03 21:09:00,
2013-07-03 14:10:00,77.9,57.2,30.15,NW,315,7.6,7.6,49,0.00,,,0.00,WUHU216HW,2013-07-03 21:10:00,
2013-07-03 14:12:00,77.8,57.1,30.15,NW,315,6.3,7.6,49,0.00,,,0.00,WUHU216HW,2013-07-03 21:12:00,
2013-07-03 14:13:00,77.4,56.8,30.15,NW,315,6.3,7.6,49,0.00,,,0.00,WUHU216HW,2013-07-03 21:13:00,
2013-07-03 14:15:00,77.4,56.8,30.15,NW,315,4.9,7.6,49,0.00,,,0.00,WUHU216HW,2013-07-03 21:15:00,
2013-07-03 14:17:00,77.4,56.8,30.15,NW,315,5.1,7.6,49,0.00,,,0.00,WUHU216HW,2013-07-03 21:17:00,
2013-07-03 14:19:00,77.6,57.0,30.15,NW,315,5.1,7.6,49,0.00,,,0.00,WUHU216HW,2013-07-03 21:19:00,
2013-07-03 14:20:00,77.8,55.9,30.15,NW,315,4.0,7.6,47,0.00,,,0.00,WUHU216HW,2013-07-03 21:20:00,
2013-07-03 14:22:00,78.3,58.2,30.15,NNW,338,4.9,6.7,50,0.00,,,0.00,WUHU216HW,2013-07-03 21:22:00,
2013-07-03 14:24:00,78.5,57.8,30.15,NW,315,4.7,6.7,49,0.00,,,0.00,WUHU216HW,2013-07-03 21:24:00,
2013-07-03 14:25:00,78.5,56.5,30.15,NW,315,7.2,7.2,47,0.00,,,0.00,WUHU216HW,2013-07-03 21:25:00,
2013-07-03 14:28:00,78.7,56.1,30.15,NW,315,4.0,7.4,46,0.00,,,0.00,WUHU216HW,2013-07-03 21:28:00,
2013-07-03 14:29:00,78.8,57.4,30.15,NNW,338,4.9,7.4,48,0.00,,,0.00,WUHU216HW,2013-07-03 21:29:00,
2013-07-03 14:30:00,79.0,57.6,30.15,NW,315,4.7,7.4,48,0.00,,,0.00,WUHU216HW,2013-07-03 21:30:00,
2013-07-03 14:33:00,79.2,57.8,30.15,NW,315,4.7,7.4,48,0.00,,,0.00,WUHU216HW,2013-07-03 21:33:00,
2013-07-03 14:34:00,79.2,57.8,30.15,NW,315,4.7,7.4,48,0.00,,,0.00,WUHU216HW,2013-07-03 21:34:00,
2013-07-03 14:35:00,79.2,56.5,30.14,NW,315,5.1,7.4,46,0.00,,,0.00,WUHU216HW,2013-07-03 21:35:00,
2013-07-03 14:36:00,79.0,57.0,30.14,NW,315,5.1,7.4,47,0.00,,,0.00,WUHU216HW,2013-07-03 21:36:00,
2013-07-03 14:38:00,78.8,56.9,30.14,NW,315,4.7,6.0,47,0.00,,,0.00,WUHU216HW,2013-07-03 21:38:00,
2013-07-03 14:39:00,78.8,56.9,30.14,NW,315,4.7,6.0,47,0.00,,,0.00,WUHU216HW,2013-07-03 21:39:00,
2013-07-03 14:40:00,78.8,57.4,30.14,NW,315,5.8,6.0,48,0.00,,,0.00,WUHU216HW,2013-07-03 21:40:00,
2013-07-03 14:42:00,78.5,56.5,30.14,NW,315,4.0,6.0,47,0.00,,,0.00,WUHU216HW,2013-07-03 21:42:00,
2013-07-03 14:43:00,78.5,55.3,30.14,NW,315,4.0,6.0,45,0.00,,,0.00,WUHU216HW,2013-07-03 21:43:00,
2013-07-03 14:44:00,78.5,57.2,30.14,NW,315,4.3,6.0,48,0.00,,,0.00,WUHU216HW,2013-07-03 21:44:00,
2013-07-03 14:45:00,78.5,57.2,30.14,NW,315,4.5,6.0,48,0.00,,,0.00,WUHU216HW,2013-07-03 21:45:00,
2013-07-03 14:47:00,78.5,57.2,30.14,WNW,293,4.0,6.0,48,0.00,,,0.00,WUHU216HW,2013-07-03 21:47:00,
2013-07-03 14:49:00,78.8,56.9,30.14,WNW,293,3.4,5.8,47,0.00,,,0.00,WUHU216HW,2013-07-03 21:49:00,
2013-07-03 14:50:00,79.0,57.0,30.14,NW,315,4.3,5.1,47,0.00,,,0.00,WUHU216HW,2013-07-03 21:50:00,
2013-07-03 14:52:00,79.2,56.5,30.14,NW,315,4.0,5.1,46,0.00,,,0.00,WUHU216HW,2013-07-03 21:52:00,
2013-07-03 14:54:00,79.2,56.5,30.14,NW,315,4.5,5.1,46,0.00,,,0.00,WUHU216HW,2013-07-03 21:54:00,
2013-07-03 14:55:00,79.2,55.4,30.14,NW,315,3.6,5.1,44,0.00,,,0.00,WUHU216HW,2013-07-03 21:55:00,
2013-07-03 14:57:00,79.4,55.5,30.14,NW,315,2.9,5.1,44,0.00,,,0.00,WUHU216HW,2013-07-03 21:57:00,
2013-07-03 14:59:00,79.7,55.8,30.14,NW,315,4.0,5.1,44,0.00,,,0.00,WUHU216HW,2013-07-03 21:59:00,
2013-07-03 15:00:00,79.9,56.0,30.14,NW,315,4.0,5.1,44,0.00,,,0.00,WUHU216HW,2013-07-03 22:00:00,
2013-07-03 15:02:00,79.9,57.3,30.14,NW,315,4.5,5.1,46,0.00,,,0.00,WUHU216HW,2013-07-03 22:02:00,
2013-07-03 15:04:00,79.9,56.6,30.14,NW,315,4.3,5.1,45,0.00,,,0.00,WUHU216HW,2013-07-03 22:04:00,
2013-07-03 15:05:00,79.9,57.3,30.14,NW,315,4.7,5.1,46,0.00,,,0.00,WUHU216HW,2013-07-03 22:05:00,
2013-07-03 15:07:00,79.6,55.6,30.14,NW,315,4.7,6.3,44,0.00,,,0.00,WUHU216HW,2013-07-03 22:07:00,
2013-07-03 15:10:00,79.6,56.3,30.14,NNW,338,4.7,6.3,45,0.00,,,0.00,WUHU216HW,2013-07-03 22:10:00,
2013-07-03 15:11:00,79.6,56.3,30.14,NNW,338,4.7,6.3,45,0.00,,,0.00,WUHU216HW,2013-07-03 22:11:00,
2013-07-03 15:12:00,79.7,56.4,30.14,NW,315,4.7,6.3,45,0.00,,,0.00,WUHU216HW,2013-07-03 22:12:00,
2013-07-03 15:15:00,79.7,55.8,30.14,NW,315,4.5,6.3,44,0.00,,,0.00,WUHU216HW,2013-07-03 22:15:00,
2013-07-03 15:16:00,79.6,56.3,30.13,NW,315,4.5,6.3,45,0.00,,,0.00,WUHU216HW,2013-07-03 22:16:00,
2013-07-03 15:17:00,79.6,58.2,30.13,NNW,338,5.8,5.8,48,0.00,,,0.00,WUHU216HW,2013-07-03 22:17:00,
2013-07-03 15:21:00,79.6,56.9,30.13,NW,315,5.4,6.7,46,0.00,,,0.00,WUHU216HW,2013-07-03 22:21:00,
2013-07-03 15:22:00,79.6,57.5,30.13,NW,315,5.8,6.7,47,0.00,,,0.00,WUHU216HW,2013-07-03 22:22:00,
2013-07-03 15:26:00,78.8,56.9,30.13,NW,315,6.9,6.9,47,0.00,,,0.00,WUHU216HW,2013-07-03 22:26:00,
2013-07-03 15:27:00,78.8,57.4,30.13,NW,315,5.4,6.9,48,0.00,,,0.00,WUHU216HW,2013-07-03 22:27:00,
2013-07-03 15:31:00,79.0,56.4,30.13,NW,315,6.9,7.2,46,0.00,,,0.00,WUHU216HW,2013-07-03 22:31:00,
2013-07-03 15:32:00,79.0,58.2,30.13,NW,315,6.3,8.1,49,0.00,,,0.00,WUHU216HW,2013-07-03 22:32:00,
2013-07-03 15:36:00,78.8,58.7,30.13,NW,315,5.4,8.1,50,0.00,,,0.00,WUHU216HW,2013-07-03 22:36:00,
2013-07-03 15:37:00,78.7,57.9,30.12,NW,315,4.9,8.1,49,0.00,,,0.00,WUHU216HW,2013-07-03 22:37:00,
2013-07-03 15:38:00,78.7,56.7,30.12,NW,315,5.8,8.1,47,0.00,,,0.00,WUHU216HW,2013-07-03 22:38:00,
2013-07-03 15:41:00,78.8,57.4,30.12,NW,315,4.0,7.2,48,0.00,,,0.00,WUHU216HW,2013-07-03 22:41:00,
2013-07-03 15:42:00,79.0,57.0,30.12,NW,315,5.4,5.8,47,0.00,,,0.00,WUHU216HW,2013-07-03 22:42:00,
2013-07-03 15:43:00,79.0,57.0,30.12,NW,315,6.0,6.0,47,0.00,,,0.00,WUHU216HW,2013-07-03 22:43:00,
2013-07-03 15:44:00,79.0,58.2,30.12,NW,315,6.3,6.9,49,0.00,,,0.00,WUHU216HW,2013-07-03 22:44:00,
2013-07-03 15:47:00,79.4,57.3,30.12,NW,315,5.4,6.9,47,0.00,,,0.00,WUHU216HW,2013-07-03 22:47:00,
2013-07-03 15:48:00,79.6,57.5,30.13,NW,315,5.4,6.9,47,0.00,,,0.00,WUHU216HW,2013-07-03 22:48:00,
2013-07-03 15:49:00,79.6,56.3,30.12,NW,315,4.5,6.9,45,0.00,,,0.00,WUHU216HW,2013-07-03 22:49:00,
2013-07-03 15:52:00,79.6,56.9,30.12,NW,315,4.3,6.9,46,0.00,,,0.00,WUHU216HW,2013-07-03 22:52:00,
2013-07-03 15:53:00,79.6,56.9,30.12,NW,315,3.8,6.9,46,0.00,,,0.00,WUHU216HW,2013-07-03 22:53:00,
2013-07-03 15:54:00,79.6,56.3,30.12,NW,315,3.4,6.9,45,0.00,,,0.00,WUHU216HW,2013-07-03 22:54:00,
2013-07-03 15:58:00,80.3,56.4,30.12,NW,315,5.4,6.3,44,0.00,,,0.00,WUHU216HW,2013-07-03 22:58:00,
2013-07-03 15:59:00,79.9,56.0,30.12,NW,315,6.0,6.0,44,0.00,,,0.00,WUHU216HW,2013-07-03 22:59:00,
2013-07-03 16:03:00,79.9,57.8,30.12,NW,315,4.3,6.3,47,0.00,,,0.00,WUHU216HW,2013-07-03 23:03:00,
2013-07-03 16:04:00,79.9,57.8,30.13,NW,315,4.0,6.3,47,0.00,,,0.00,WUHU216HW,2013-07-03 23:04:00,
2013-07-03 16:05:00,79.9,57.3,30.12,NW,315,4.0,6.3,46,0.00,,,0.00,WUHU216HW,2013-07-03 23:05:00,
2013-07-03 16:08:00,80.3,56.9,30.12,NW,315,3.4,6.3,45,0.00,,,0.00,WUHU216HW,2013-07-03 23:08:00,
2013-07-03 16:09:00,80.6,57.9,30.12,NW,315,4.7,6.3,46,0.00,,,0.00,WUHU216HW,2013-07-03 23:09:00,
2013-07-03 16:10:00,80.6,57.2,30.12,NW,315,3.8,6.3,45,0.00,,,0.00,WUHU216HW,2013-07-03 23:10:00,
2013-07-03 16:13:00,80.6,58.5,30.12,NW,315,4.3,5.4,47,0.00,,,0.00,WUHU216HW,2013-07-03 23:13:00,
2013-07-03 16:15:00,81.0,57.6,30.12,WNW,293,5.4,5.4,45,0.00,,,0.00,WUHU216HW,2013-07-03 23:15:00,
2013-07-03 16:19:00,80.6,57.2,30.12,NW,315,4.7,5.4,45,0.00,,,0.00,WUHU216HW,2013-07-03 23:19:00,
2013-07-03 16:20:00,80.6,56.6,30.11,NW,315,4.7,5.4,44,0.00,,,0.00,WUHU216HW,2013-07-03 23:20:00,
2013-07-03 16:24:00,80.3,58.8,30.11,NW,315,3.8,5.4,48,0.00,,,0.00,WUHU216HW,2013-07-03 23:24:00,
2013-07-03 16:25:00,80.3,56.9,30.11,NW,315,5.1,5.4,45,0.00,,,0.00,WUHU216HW,2013-07-03 23:25:00,
2013-07-03 16:29:00,80.3,57.5,30.11,NW,315,4.7,5.4,46,0.00,,,0.00,WUHU216HW,2013-07-03 23:29:00,
2013-07-03 16:30:00,80.5,55.3,30.11,NW,315,4.0,5.4,42,0.00,,,0.00,WUHU216HW,2013-07-03 23:30:00,
2013-07-03 16:31:00,80.3,55.1,30.11,NW,315,4.7,5.4,42,0.00,,,0.00,WUHU216HW,2013-07-03 23:31:00,
2013-07-03 16:34:00,80.1,56.8,30.11,NW,315,3.8,5.4,45,0.00,,,0.00,WUHU216HW,2013-07-03 23:34:00,
2013-07-03 16:35:00,80.1,58.6,30.11,NW,315,4.0,5.4,48,0.00,,,0.00,WUHU216HW,2013-07-03 23:35:00,
2013-07-03 16:36:00,80.1,58.6,30.11,NW,315,4.0,5.4,48,0.00,,,0.00,WUHU216HW,2013-07-03 23:36:00,
2013-07-03 16:40:00,80.1,56.2,30.11,NW,315,5.8,5.8,44,0.00,,,0.00,WUHU216HW,2013-07-03 23:40:00,
2013-07-03 16:41:00,80.3,58.1,30.11,NW,315,5.4,5.8,47,0.00,,,0.00,WUHU216HW,2013-07-03 23:41:00,
2013-07-03 16:45:00,80.1,57.3,30.11,NW,315,4.5,5.8,46,0.00,,,0.00,WUHU216HW,2013-07-03 23:45:00,
2013-07-03 16:46:00,79.9,58.4,30.11,NNW,338,4.7,5.8,48,0.00,,,0.00,WUHU216HW,2013-07-03 23:46:00,
2013-07-03 16:50:00,79.7,58.9,30.11,NW,315,5.4,5.6,49,0.00,,,0.00,WUHU216HW,2013-07-03 23:50:00,
2013-07-03 16:51:00,79.9,58.4,30.11,NW,315,5.4,5.6,48,0.00,,,0.00,WUHU216HW,2013-07-03 23:51:00,
2013-07-03 16:55:00,79.6,58.7,30.11,NW,315,4.0,5.6,49,0.00,,,0.00,WUHU216HW,2013-07-03 23:55:00,
2013-07-03 16:56:00,79.6,58.2,30.11,NW,315,4.5,5.6,48,0.00,,,0.00,WUHU216HW,2013-07-03 23:56:00,
2013-07-03 17:00:00,79.4,56.7,30.11,NW,315,4.5,6.9,46,0.00,,,0.00,WUHU216HW,2013-07-04 00:00:00,
2013-07-03 17:01:00,79.2,56.5,30.11,WNW,293,5.8,6.9,46,0.00,,,0.00,WUHU216HW,2013-07-04 00:01:00,
2013-07-03 17:02:00,79.2,56.5,30.11,WNW,293,5.8,6.9,46,0.00,,,0.00,WUHU216HW,2013-07-04 00:02:00,
2013-07-03 17:05:00,79.6,56.3,30.11,NW,315,4.3,6.9,45,0.00,,,0.00,WUHU216HW,2013-07-04 00:05:00,
2013-07-03 17:07:00,79.6,56.3,30.11,NW,315,4.5,6.3,45,0.00,,,0.00,WUHU216HW,2013-07-04 00:07:00,
2013-07-03 17:11:00,79.7,56.4,30.11,NW,315,4.5,6.0,45,0.00,,,0.00,WUHU216HW,2013-07-04 00:11:00,
2013-07-03 17:12:00,79.7,56.4,30.12,NW,315,4.5,6.0,45,0.00,,,0.00,WUHU216HW,2013-07-04 00:12:00,
2013-07-03 17:13:00,79.9,56.0,30.12,WNW,293,4.5,5.8,44,0.00,,,0.00,WUHU216HW,2013-07-04 00:13:00,
2013-07-03 17:14:00,79.7,56.4,30.11,NW,315,4.9,5.6,45,0.00,,,0.00,WUHU216HW,2013-07-04 00:14:00,
2013-07-03 17:16:00,79.6,55.6,30.11,NW,315,4.7,6.3,44,0.00,,,0.00,WUHU216HW,2013-07-04 00:16:00,
2013-07-03 17:17:00,79.6,57.5,30.11,NW,315,5.1,6.3,47,0.00,,,0.00,WUHU216HW,2013-07-04 00:17:00,
2013-07-03 17:18:00,79.4,56.7,30.11,NW,315,5.4,6.3,46,0.00,,,0.00,WUHU216HW,2013-07-04 00:18:00,
2013-07-03 17:19:00,79.6,56.9,30.11,NNW,338,5.4,6.3,46,0.00,,,0.00,WUHU216HW,2013-07-04 00:19:00,
2013-07-03 17:21:00,79.6,55.6,30.11,NW,315,5.6,6.3,44,0.00,,,0.00,WUHU216HW,2013-07-04 00:21:00,
2013-07-03 17:22:00,79.6,56.9,30.11,NW,315,4.5,6.3,46,0.00,,,0.00,WUHU216HW,2013-07-04 00:22:00,
2013-07-03 17:23:00,79.6,56.9,30.11,NW,315,4.7,6.3,46,0.00,,,0.00,WUHU216HW,2013-07-04 00:23:00,
2013-07-03 17:24:00,79.6,56.9,30.11,NNW,338,4.9,6.3,46,0.00,,,0.00,WUHU216HW,2013-07-04 00:24:00,
2013-07-03 17:26:00,79.4,55.5,30.11,NW,315,5.8,6.0,44,0.00,,,0.00,WUHU216HW,2013-07-04 00:26:00,
2013-07-03 17:27:00,79.2,56.5,30.11,NW,315,5.4,6.0,46,0.00,,,0.00,WUHU216HW,2013-07-04 00:27:00,
2013-07-03 17:28:00,79.2,56.5,30.10,NW,315,5.4,5.8,46,0.00,,,0.00,WUHU216HW,2013-07-04 00:28:00,
2013-07-03 17:29:00,79.0,56.4,30.10,NW,315,6.3,6.3,46,0.00,,,0.00,WUHU216HW,2013-07-04 00:29:00,
2013-07-03 17:31:00,78.8,56.9,30.10,NW,315,5.4,6.3,47,0.00,,,0.00,WUHU216HW,2013-07-04 00:31:00,
2013-07-03 17:32:00,78.8,55.6,30.10,WNW,293,5.8,6.3,45,0.00,,,0.00,WUHU216HW,2013-07-04 00:32:00,
2013-07-03 17:33:00,78.8,56.3,30.10,WNW,293,6.0,6.3,46,0.00,,,0.00,WUHU216HW,2013-07-04 00:33:00,
2013-07-03 17:34:00,78.5,55.9,30.10,NW,315,5.8,6.3,46,0.00,,,0.00,WUHU216HW,2013-07-04 00:34:00,
2013-07-03 17:36:00,78.1,55.6,30.10,NW,315,4.7,6.3,46,0.00,,,0.00,WUHU216HW,2013-07-04 00:36:00,
2013-07-03 17:37:00,78.1,56.8,30.10,NW,315,5.4,6.3,48,0.00,,,0.00,WUHU216HW,2013-07-04 00:37:00,
2013-07-03 17:38:00,78.1,56.2,30.10,NW,315,5.6,6.5,47,0.00,,,0.00,WUHU216HW,2013-07-04 00:38:00,
2013-07-03 17:40:00,78.1,55.0,30.10,NW,315,6.3,6.5,45,0.00,,,0.00,WUHU216HW,2013-07-04 00:40:00,
2013-07-03 17:42:00,78.1,55.6,30.10,NW,315,4.7,6.5,46,0.00,,,0.00,WUHU216HW,2013-07-04 00:42:00,
2013-07-03 17:43:00,78.1,55.6,30.10,NW,315,5.1,6.5,46,0.00,,,0.00,WUHU216HW,2013-07-04 00:43:00,
2013-07-03 17:45:00,78.3,56.3,30.10,NW,315,4.9,6.5,47,0.00,,,0.00,WUHU216HW,2013-07-04 00:45:00,
2013-07-03 17:47:00,78.1,56.8,30.10,NW,315,6.3,6.5,48,0.00,,,0.00,WUHU216HW,2013-07-04 00:47:00,
2013-07-03 17:48:00,78.1,56.8,30.10,NW,315,4.9,6.5,48,0.00,,,0.00,WUHU216HW,2013-07-04 00:48:00,
2013-07-03 17:49:00,78.1,56.8,30.09,NW,315,5.1,6.3,48,0.00,,,0.00,WUHU216HW,2013-07-04 00:49:00,
2013-07-03 17:50:00,78.1,58.1,30.10,NW,315,4.9,6.3,50,0.00,,,0.00,WUHU216HW,2013-07-04 00:50:00,
2013-07-03 17:52:00,78.1,58.1,30.10,NW,315,4.7,6.3,50,0.00,,,0.00,WUHU216HW,2013-07-04 00:52:00,
2013-07-03 17:53:00,78.1,58.1,30.10,NW,315,4.7,6.3,50,0.00,,,0.00,WUHU216HW,2013-07-04 00:53:00,
2013-07-03 17:54:00,78.1,57.4,30.10,NW,315,5.4,6.3,49,0.00,,,0.00,WUHU216HW,2013-07-04 00:54:00,
2013-07-03 17:55:00,78.1,58.1,30.09,NW,315,5.8,6.3,50,0.00,,,0.00,WUHU216HW,2013-07-04 00:55:00,
2013-07-03 17:58:00,77.9,57.2,30.10,WNW,293,4.0,5.8,49,0.00,,,0.00,WUHU216HW,2013-07-04 00:58:00,
2013-07-03 17:59:00,77.9,57.9,30.09,NW,315,4.7,5.8,50,0.00,,,0.00,WUHU216HW,2013-07-04 00:59:00,
2013-07-03 18:00:00,77.9,57.9,30.09,WNW,293,3.8,5.8,50,0.00,,,0.00,WUHU216HW,2013-07-04 01:00:00,
2013-07-03 18:03:00,78.1,58.1,30.09,NW,315,5.1,5.8,50,0.00,,,0.00,WUHU216HW,2013-07-04 01:03:00,
2013-07-03 18:05:00,77.9,57.9,30.09,NW,315,4.7,5.8,50,0.00,,,0.00,WUHU216HW,2013-07-04 01:05:00,
2013-07-03 18:06:00,77.8,57.1,30.10,NW,315,5.4,5.8,49,0.00,,,0.00,WUHU216HW,2013-07-04 01:06:00,
2013-07-03 18:08:00,77.8,57.7,30.09,NW,315,5.8,6.0,50,0.00,,,0.00,WUHU216HW,2013-07-04 01:08:00,
2013-07-03 18:10:00,77.4,56.8,30.09,NW,315,4.9,6.0,49,0.00,,,0.00,WUHU216HW,2013-07-04 01:10:00,
2013-07-03 18:11:00,77.4,58.4,30.09,NW,315,5.1,6.0,52,0.00,,,0.00,WUHU216HW,2013-07-04 01:11:00,
2013-07-03 18:13:00,77.2,58.2,30.09,WNW,293,3.6,6.0,52,0.00,,,0.00,WUHU216HW,2013-07-04 01:13:00,
2013-07-03 18:14:00,77.2,56.6,30.09,NW,315,4.7,6.0,49,0.00,,,0.00,WUHU216HW,2013-07-04 01:14:00,
2013-07-03 18:15:00,77.0,57.1,30.09,NW,315,5.4,6.0,50,0.00,,,0.00,WUHU216HW,2013-07-04 01:15:00,
2013-07-03 18:17:00,76.9,58.4,30.09,NW,315,5.1,6.0,53,0.00,,,0.00,WUHU216HW,2013-07-04 01:17:00,
2013-07-03 18:18:00,76.7,59.2,30.09,NW,315,4.7,6.0,55,0.00,,,0.00,WUHU216HW,2013-07-04 01:18:00,
2013-07-03 18:19:00,76.3,58.0,30.09,NW,315,5.8,5.8,53,0.00,,,0.00,WUHU216HW,2013-07-04 01:19:00,
2013-07-03 18:21:00,76.0,57.1,30.09,NW,315,6.0,6.0,52,0.00,,,0.00,WUHU216HW,2013-07-04 01:21:00,
2013-07-03 18:22:00,75.8,55.9,30.09,NW,315,5.6,6.3,50,0.00,,,0.00,WUHU216HW,2013-07-04 01:22:00,
2013-07-03 18:23:00,75.6,56.8,30.09,NW,315,4.7,6.3,52,0.00,,,0.00,WUHU216HW,2013-07-04 01:23:00,
2013-07-03 18:24:00,75.8,57.0,30.09,NW,315,4.7,6.3,52,0.00,,,0.00,WUHU216HW,2013-07-04 01:24:00,
2013-07-03 18:26:00,75.8,56.4,30.09,NW,315,4.5,6.3,51,0.00,,,0.00,WUHU216HW,2013-07-04 01:26:00,
2013-07-03 18:27:00,75.8,55.9,30.09,NW,315,4.9,6.3,50,0.00,,,0.00,WUHU216HW,2013-07-04 01:27:00,
2013-07-03 18:28:00,75.8,58.0,30.09,NW,315,4.3,6.3,54,0.00,,,0.00,WUHU216HW,2013-07-04 01:28:00,
2013-07-03 18:29:00,75.8,58.0,30.09,NW,315,5.4,6.3,54,0.00,,,0.00,WUHU216HW,2013-07-04 01:29:00,
2013-07-03 18:31:00,75.8,54.7,30.09,NW,315,4.9,6.3,48,0.00,,,0.00,WUHU216HW,2013-07-04 01:31:00,
2013-07-03 18:33:00,75.8,56.4,30.09,NW,315,5.1,6.3,51,0.00,,,0.00,WUHU216HW,2013-07-04 01:33:00,
2013-07-03 18:35:00,76.0,58.2,30.09,NW,315,5.8,6.3,54,0.00,,,0.00,WUHU216HW,2013-07-04 01:35:00,
2013-07-03 18:36:00,76.0,56.1,30.09,NW,315,5.8,6.3,50,0.00,,,0.00,WUHU216HW,2013-07-04 01:36:00,
2013-07-03 18:38:00,75.8,57.0,30.09,NW,315,6.3,7.6,52,0.00,,,0.00,WUHU216HW,2013-07-04 01:38:00,
2013-07-03 18:39:00,75.8,58.4,30.09,NW,315,6.3,7.6,55,0.00,,,0.00,WUHU216HW,2013-07-04 01:39:00,
2013-07-03 18:40:00,75.6,56.3,30.09,NW,315,6.3,7.6,51,0.00,,,0.00,WUHU216HW,2013-07-04 01:40:00,
2013-07-03 18:42:00,75.4,55.6,30.09,NW,315,6.0,7.6,50,0.00,,,0.00,WUHU216HW,2013-07-04 01:42:00,
2013-07-03 18:43:00,75.2,56.0,30.09,NW,315,5.6,7.6,51,0.00,,,0.00,WUHU216HW,2013-07-04 01:43:00,
2013-07-03 18:44:00,75.2,55.4,30.09,NW,315,5.6,7.6,50,0.00,,,0.00,WUHU216HW,2013-07-04 01:44:00,
2013-07-03 18:45:00,75.2,58.0,30.09,NW,315,4.9,7.6,55,0.00,,,0.00,WUHU216HW,2013-07-04 01:45:00,
2013-07-03 18:47:00,75.2,57.4,30.09,WNW,293,3.8,7.6,54,0.00,,,0.00,WUHU216HW,2013-07-04 01:47:00,
2013-07-03 18:48:00,75.2,57.4,30.08,NW,315,4.3,6.7,54,0.00,,,0.00,WUHU216HW,2013-07-04 01:48:00,
2013-07-03 18:49:00,75.2,57.0,30.09,NW,315,4.7,6.7,53,0.00,,,0.00,WUHU216HW,2013-07-04 01:49:00,
2013-07-03 18:50:00,75.4,57.2,30.08,NW,315,4.7,6.7,53,0.00,,,0.00,WUHU216HW,2013-07-04 01:50:00,
2013-07-03 18:52:00,75.6,56.3,30.08,NW,315,4.9,6.3,51,0.00,,,0.00,WUHU216HW,2013-07-04 01:52:00,
2013-07-03 18:53:00,75.6,56.8,30.09,NW,315,4.7,6.3,52,0.00,,,0.00,WUHU216HW,2013-07-04 01:53:00,
2013-07-03 18:54:00,75.6,56.8,30.08,NW,315,5.4,6.3,52,0.00,,,0.00,WUHU216HW,2013-07-04 01:54:00,
2013-07-03 18:55:00,75.6,57.2,30.09,NW,315,4.3,5.6,53,0.00,,,0.00,WUHU216HW,2013-07-04 01:55:00,
2013-07-03 18:57:00,75.6,56.8,30.08,NW,315,4.9,5.6,52,0.00,,,0.00,WUHU216HW,2013-07-04 01:57:00,
2013-07-03 18:58:00,75.8,56.4,30.08,NW,315,5.4,5.6,51,0.00,,,0.00,WUHU216HW,2013-07-04 01:58:00,
2013-07-03 18:59:00,75.8,56.4,30.08,NW,315,5.4,5.6,51,0.00,,,0.00,WUHU216HW,2013-07-04 01:59:00,
2013-07-03 19:00:00,75.8,56.4,30.09,NW,315,4.7,5.6,51,0.00,,,0.00,WUHU216HW,2013-07-04 02:00:00,
2013-07-03 19:02:00,75.8,55.9,30.09,NW,315,4.9,5.6,50,0.00,,,0.00,WUHU216HW,2013-07-04 02:02:00,
2013-07-03 19:04:00,75.8,56.4,30.09,NW,315,5.4,5.6,51,0.00,,,0.00,WUHU216HW,2013-07-04 02:04:00,
2013-07-03 19:05:00,75.6,55.8,30.09,NW,315,5.4,5.6,50,0.00,,,0.00,WUHU216HW,2013-07-04 02:05:00,
2013-07-03 19:08:00,75.2,54.2,30.09,NW,315,7.2,7.2,48,0.00,,,0.00,WUHU216HW,2013-07-04 02:08:00,
2013-07-03 19:09:00,75.2,54.8,30.09,WNW,293,3.4,7.2,49,0.00,,,0.00,WUHU216HW,2013-07-04 02:09:00,
2013-07-03 19:11:00,75.2,54.2,30.09,NNW,338,2.7,7.2,48,0.00,,,0.00,WUHU216HW,2013-07-04 02:11:00,
2013-07-03 19:13:00,75.2,51.8,30.09,WNW,293,6.3,7.2,44,0.00,,,0.00,WUHU216HW,2013-07-04 02:13:00,
2013-07-03 19:15:00,75.2,51.8,30.09,NNW,338,4.0,7.2,44,0.00,,,0.00,WUHU216HW,2013-07-04 02:15:00,
2013-07-03 19:16:00,75.2,50.6,30.09,NNW,338,3.4,7.2,42,0.00,,,0.00,WUHU216HW,2013-07-04 02:16:00,
2013-07-03 19:18:00,75.4,50.7,30.09,NW,315,2.5,6.5,42,0.00,,,0.00,WUHU216HW,2013-07-04 02:18:00,
2013-07-03 19:20:00,75.6,50.2,30.09,North,0,3.4,6.5,41,0.00,,,0.00,WUHU216HW,2013-07-04 02:20:00,
2013-07-03 19:21:00,75.6,49.7,30.09,WNW,293,4.3,6.5,40,0.00,,,0.00,WUHU216HW,2013-07-04 02:21:00,
2013-07-03 19:24:00,75.8,49.1,30.09,NNW,338,7.4,7.4,39,0.00,,,0.00,WUHU216HW,2013-07-04 02:24:00,
2013-07-03 19:25:00,75.8,49.1,30.09,North,0,10.5,10.5,39,0.00,,,0.00,WUHU216HW,2013-07-04 02:25:00,
2013-07-03 19:26:00,75.6,49.7,30.09,NW,315,5.4,10.5,40,0.00,,,0.00,WUHU216HW,2013-07-04 02:26:00,
2013-07-03 19:29:00,75.4,48.7,30.09,NW,315,3.8,10.5,39,0.00,,,0.00,WUHU216HW,2013-07-04 02:29:00,
2013-07-03 19:30:00,75.2,49.3,30.09,NW,315,6.7,10.5,40,0.00,,,0.00,WUHU216HW,2013-07-04 02:30:00,
2013-07-03 19:31:00,74.9,48.2,30.09,North,0,3.4,10.5,39,0.00,,,0.00,WUHU216HW,2013-07-04 02:31:00,
2013-07-03 19:34:00,74.7,47.4,30.09,NW,315,9.4,10.5,38,0.00,,,0.00,WUHU216HW,2013-07-04 02:34:00,
2013-07-03 19:35:00,74.5,47.2,30.09,NNW,338,6.3,10.5,38,0.00,,,0.00,WUHU216HW,2013-07-04 02:35:00,
2013-07-03 19:36:00,74.3,47.8,30.09,NW,315,5.4,10.5,39,0.00,,,0.00,WUHU216HW,2013-07-04 02:36:00,
2013-07-03 19:37:00,74.3,48.5,30.09,NW,315,5.4,10.5,40,0.00,,,0.00,WUHU216HW,2013-07-04 02:37:00,
2013-07-03 19:39:00,74.3,49.2,30.09,NNW,338,3.4,10.5,41,0.00,,,0.00,WUHU216HW,2013-07-04 02:39:00,
2013-07-03 19:41:00,74.3,49.2,30.09,NNW,338,5.8,9.4,41,0.00,,,0.00,WUHU216HW,2013-07-04 02:41:00,
2013-07-03 19:44:00,73.8,49.2,30.09,NNW,338,5.4,9.4,42,0.00,,,0.00,WUHU216HW,2013-07-04 02:44:00,
2013-07-03 19:46:00,73.8,49.2,30.09,NNW,338,6.9,8.9,42,0.00,,,0.00,WUHU216HW,2013-07-04 02:46:00,
2013-07-03 19:47:00,73.8,49.9,30.09,NW,315,6.7,8.9,43,0.00,,,0.00,WUHU216HW,2013-07-04 02:47:00,
2013-07-03 19:49:00,73.8,51.0,30.09,NW,315,6.3,8.9,45,0.00,,,0.00,WUHU216HW,2013-07-04 02:49:00,
2013-07-03 19:51:00,73.6,50.9,30.09,NW,315,4.7,8.5,45,0.00,,,0.00,WUHU216HW,2013-07-04 02:51:00,
2013-07-03 19:52:00,73.6,50.2,30.09,NNW,338,7.4,8.5,44,0.00,,,0.00,WUHU216HW,2013-07-04 02:52:00,
2013-07-03 19:54:00,73.6,49.7,30.09,NW,315,4.9,8.7,43,0.00,,,0.00,WUHU216HW,2013-07-04 02:54:00,
2013-07-03 19:56:00,73.6,51.5,30.09,NNW,338,7.2,8.7,46,0.00,,,0.00,WUHU216HW,2013-07-04 02:56:00,
2013-07-03 19:57:00,73.6,52.0,30.09,NW,315,6.9,8.7,47,0.00,,,0.00,WUHU216HW,2013-07-04 02:57:00,
2013-07-03 19:59:00,73.3,51.1,30.09,NW,315,6.3,8.7,46,0.00,,,0.00,WUHU216HW,2013-07-04 02:59:00,
2013-07-03 20:01:00,73.3,50.5,30.09,NNW,338,6.3,8.7,45,0.00,,,0.00,WUHU216HW,2013-07-04 03:01:00,
2013-07-03 20:02:00,73.1,50.3,30.09,NW,315,4.9,8.7,45,0.00,,,0.00,WUHU216HW,2013-07-04 03:02:00,
2013-07-03 20:05:00,73.1,52.1,30.09,NW,315,7.8,9.8,48,0.00,,,0.00,WUHU216HW,2013-07-04 03:05:00,
2013-07-03 20:06:00,72.7,51.2,30.09,NNW,338,6.9,9.8,47,0.00,,,0.00,WUHU216HW,2013-07-04 03:06:00,
2013-07-03 20:07:00,72.7,51.9,30.08,NW,315,4.5,9.8,48,0.00,,,0.00,WUHU216HW,2013-07-04 03:07:00,
2013-07-03 20:10:00,72.4,53.2,30.09,NNW,338,4.7,9.8,51,0.00,,,0.00,WUHU216HW,2013-07-04 03:10:00,
2013-07-03 20:12:00,72.2,52.5,30.09,NNW,338,5.6,9.8,50,0.00,,,0.00,WUHU216HW,2013-07-04 03:12:00,
2013-07-03 20:15:00,72.0,52.4,30.09,NW,315,6.7,9.2,50,0.00,,,0.00,WUHU216HW,2013-07-04 03:15:00,
2013-07-03 20:17:00,72.0,52.8,30.09,NW,315,7.8,8.7,51,0.00,,,0.00,WUHU216HW,2013-07-04 03:17:00,
2013-07-03 20:20:00,71.6,52.6,30.09,WNW,293,6.7,8.7,51,0.00,,,0.00,WUHU216HW,2013-07-04 03:20:00,
2013-07-03 20:22:00,71.6,54.5,30.09,NNW,338,6.7,8.7,55,0.00,,,0.00,WUHU216HW,2013-07-04 03:22:00,
2013-07-03 20:25:00,71.1,54.1,30.09,NNW,338,4.9,8.7,55,0.00,,,0.00,WUHU216HW,2013-07-04 03:25:00,
2013-07-03 20:27:00,70.9,53.9,30.09,NW,315,4.3,7.8,55,0.00,,,0.00,WUHU216HW,2013-07-04 03:27:00,
2013-07-03 20:28:00,70.9,53.9,30.09,NW,315,5.4,7.4,55,0.00,,,0.00,WUHU216HW,2013-07-04 03:28:00,
2013-07-03 20:30:00,70.9,54.4,30.09,NW,315,7.2,7.2,56,0.00,,,0.00,WUHU216HW,2013-07-04 03:30:00,
2013-07-03 20:32:00,70.7,53.2,30.09,NW,315,4.5,7.2,54,0.00,,,0.00,WUHU216HW,2013-07-04 03:32:00,
2013-07-03 20:33:00,70.7,54.3,30.09,NW,315,3.6,7.2,56,0.00,,,0.00,WUHU216HW,2013-07-04 03:33:00,
2013-07-03 20:35:00,70.6,53.6,30.09,NW,315,5.1,7.2,55,0.00,,,0.00,WUHU216HW,2013-07-04 03:35:00,
2013-07-03 20:38:00,70.6,53.6,30.09,NNW,338,4.0,7.2,55,0.00,,,0.00,WUHU216HW,2013-07-04 03:38:00,
2013-07-03 20:41:00,70.2,53.3,30.09,NW,315,5.4,7.2,55,0.00,,,0.00,WUHU216HW,2013-07-04 03:41:00,
2013-07-03 20:43:00,70.0,53.1,30.09,NW,315,4.7,7.6,55,0.00,,,0.00,WUHU216HW,2013-07-04 03:43:00,
2013-07-03 20:46:00,69.8,52.9,30.09,NNW,338,4.0,7.6,55,0.00,,,0.00,WUHU216HW,2013-07-04 03:46:00,
2013-07-03 20:48:00,69.7,53.3,30.09,NW,315,3.4,7.6,56,0.00,,,0.00,WUHU216HW,2013-07-04 03:48:00,
2013-07-03 20:51:00,69.5,53.1,30.09,NW,315,4.0,7.6,56,0.00,,,0.00,WUHU216HW,2013-07-04 03:51:00,
2013-07-03 20:53:00,69.1,52.8,30.09,NW,315,5.1,6.3,56,0.00,,,0.00,WUHU216HW,2013-07-04 03:53:00,
2013-07-03 20:54:00,69.1,52.8,30.09,NW,315,5.8,6.3,56,0.00,,,0.00,WUHU216HW,2013-07-04 03:54:00,
2013-07-03 20:56:00,68.8,53.4,30.09,NW,315,5.8,6.0,58,0.00,,,0.00,WUHU216HW,2013-07-04 03:56:00,
2013-07-03 20:58:00,68.4,53.0,30.09,NW,315,5.4,7.2,58,0.00,,,0.00,WUHU216HW,2013-07-04 03:58:00,
2013-07-03 20:59:00,68.4,53.0,30.09,NNW,338,5.8,7.2,58,0.00,,,0.00,WUHU216HW,2013-07-04 03:59:00,
2013-07-03 21:01:00,68.2,52.8,30.09,NW,315,5.4,7.2,58,0.00,,,0.00,WUHU216HW,2013-07-04 04:01:00,
2013-07-03 21:06:00,67.7,52.4,30.09,NW,315,4.3,7.2,58,0.00,,,0.00,WUHU216HW,2013-07-04 04:06:00,
2013-07-03 21:11:00,67.3,52.0,30.09,WNW,293,4.7,6.0,58,0.00,,,0.00,WUHU216HW,2013-07-04 04:11:00,
2013-07-03 21:12:00,67.1,52.4,30.09,WNW,293,4.9,6.0,59,0.00,,,0.00,WUHU216HW,2013-07-04 04:12:00,
2013-07-03 21:16:00,66.8,52.0,30.09,NW,315,5.6,6.0,59,0.00,,,0.00,WUHU216HW,2013-07-04 04:16:00,
2013-07-03 21:17:00,66.6,51.4,30.09,NW,315,4.3,5.8,58,0.00,,,0.00,WUHU216HW,2013-07-04 04:17:00,
2013-07-03 21:21:00,66.4,51.7,30.09,NW,315,3.8,6.5,59,0.00,,,0.00,WUHU216HW,2013-07-04 04:21:00,
2013-07-03 21:22:00,66.4,52.2,30.09,NW,315,2.5,6.5,60,0.00,,,0.00,WUHU216HW,2013-07-04 04:22:00,
2013-07-03 21:26:00,66.1,51.4,30.10,SW,225,1.3,8.1,59,0.00,,,0.00,WUHU216HW,2013-07-04 04:26:00,
2013-07-03 21:27:00,65.9,52.1,30.10,WSW,248,3.1,8.1,61,0.00,,,0.00,WUHU216HW,2013-07-04 04:27:00,
2013-07-03 21:31:00,65.7,51.9,30.10,North,0,5.6,8.1,61,0.00,,,0.00,WUHU216HW,2013-07-04 04:31:00,
2013-07-03 21:32:00,65.5,51.3,30.10,WNW,293,2.5,8.1,60,0.00,,,0.00,WUHU216HW,2013-07-04 04:32:00,
2013-07-03 21:36:00,65.3,51.1,30.10,WNW,293,2.5,5.6,60,0.00,,,0.00,WUHU216HW,2013-07-04 04:36:00,
2013-07-03 21:37:00,65.2,52.2,30.10,NW,315,4.7,5.6,63,0.00,,,0.00,WUHU216HW,2013-07-04 04:37:00,
2013-07-03 21:41:00,64.8,52.3,30.10,WSW,248,3.1,5.6,64,0.00,,,0.00,WUHU216HW,2013-07-04 04:41:00,
2013-07-03 21:42:00,64.8,52.3,30.10,NNW,338,4.0,5.4,64,0.00,,,0.00,WUHU216HW,2013-07-04 04:42:00,
2013-07-03 21:46:00,64.4,51.9,30.10,NW,315,4.0,7.6,64,0.00,,,0.00,WUHU216HW,2013-07-04 04:46:00,
2013-07-03 21:47:00,64.4,51.9,30.10,NNW,338,2.5,7.6,64,0.00,,,0.00,WUHU216HW,2013-07-04 04:47:00,
2013-07-03 21:51:00,64.1,52.5,30.10,NW,315,5.4,7.6,66,0.00,,,0.00,WUHU216HW,2013-07-04 04:51:00,
2013-07-03 21:52:00,63.9,51.8,30.11,NW,315,6.3,7.6,65,0.00,,,0.00,WUHU216HW,2013-07-04 04:52:00,
2013-07-03 21:56:00,63.7,51.7,30.10,NW,315,4.7,7.4,65,0.00,,,0.00,WUHU216HW,2013-07-04 04:56:00,
2013-07-03 21:57:00,63.7,51.7,30.10,NW,315,5.6,7.4,65,0.00,,,0.00,WUHU216HW,2013-07-04 04:57:00,
2013-07-03 22:01:00,63.4,52.2,30.11,NW,315,5.4,7.4,67,0.00,,,0.00,WUHU216HW,2013-07-04 05:01:00,
2013-07-03 22:02:00,63.4,51.4,30.11,WSW,248,4.5,7.4,65,0.00,,,0.00,WUHU216HW,2013-07-04 05:02:00,
2013-07-03 22:06:00,63.2,52.0,30.11,NW,315,7.2,7.2,67,0.00,,,0.00,WUHU216HW,2013-07-04 05:06:00,
2013-07-03 22:07:00,63.0,51.8,30.11,NW,315,4.7,7.2,67,0.00,,,0.00,WUHU216HW,2013-07-04 05:07:00,
2013-07-03 22:08:00,63.0,51.8,30.10,NW,315,4.0,7.2,67,0.00,,,0.00,WUHU216HW,2013-07-04 05:08:00,
2013-07-03 22:11:00,63.0,52.3,30.11,NW,315,2.5,7.2,68,0.00,,,0.00,WUHU216HW,2013-07-04 05:11:00,
2013-07-03 22:12:00,63.0,52.3,30.11,NW,315,3.1,7.2,68,0.00,,,0.00,WUHU216HW,2013-07-04 05:12:00,
2013-07-03 22:13:00,63.0,51.4,30.11,NW,315,4.3,7.2,66,0.00,,,0.00,WUHU216HW,2013-07-04 05:13:00,
2013-07-03 22:16:00,62.8,52.1,30.11,NW,315,4.5,5.4,68,0.00,,,0.00,WUHU216HW,2013-07-04 05:16:00,
2013-07-03 22:17:00,62.8,52.1,30.11,NW,315,2.7,5.4,68,0.00,,,0.00,WUHU216HW,2013-07-04 05:17:00,
2013-07-03 22:18:00,62.8,51.7,30.11,NNW,338,4.0,5.4,67,0.00,,,0.00,WUHU216HW,2013-07-04 05:18:00,
2013-07-03 22:21:00,62.8,51.7,30.11,NW,315,2.7,4.7,67,0.00,,,0.00,WUHU216HW,2013-07-04 05:21:00,
2013-07-03 22:22:00,62.8,51.7,30.11,NW,315,2.9,4.7,67,0.00,,,0.00,WUHU216HW,2013-07-04 05:22:00,
2013-07-03 22:23:00,62.6,51.1,30.11,NNW,338,2.0,4.7,66,0.00,,,0.00,WUHU216HW,2013-07-04 05:23:00,
2013-07-03 22:26:00,62.6,51.1,30.11,WNW,293,2.5,4.5,66,0.00,,,0.00,WUHU216HW,2013-07-04 05:26:00,
2013-07-03 22:27:00,62.6,51.1,30.11,WNW,293,3.1,4.5,66,0.00,,,0.00,WUHU216HW,2013-07-04 05:27:00,
2013-07-03 22:28:00,62.6,51.9,30.11,West,270,1.8,4.5,68,0.00,,,0.00,WUHU216HW,2013-07-04 05:28:00,
2013-07-03 22:31:00,62.5,50.5,30.11,NNW,338,4.0,4.5,65,0.00,,,0.00,WUHU216HW,2013-07-04 05:31:00,
2013-07-03 22:32:00,62.5,51.0,30.11,NNW,338,2.5,4.5,66,0.00,,,0.00,WUHU216HW,2013-07-04 05:32:00,
2013-07-03 22:33:00,62.5,50.5,30.11,West,270,2.7,4.5,65,0.00,,,0.00,WUHU216HW,2013-07-04 05:33:00,
2013-07-03 22:37:00,62.3,50.8,30.11,NW,315,3.1,4.7,66,0.00,,,0.00,WUHU216HW,2013-07-04 05:37:00,
2013-07-03 22:38:00,62.3,50.8,30.11,NW,315,6.5,6.5,66,0.00,,,0.00,WUHU216HW,2013-07-04 05:38:00,
2013-07-03 22:42:00,62.1,51.0,30.11,NW,315,2.7,6.5,67,0.00,,,0.00,WUHU216HW,2013-07-04 05:42:00,
2013-07-03 22:43:00,62.1,51.4,30.11,NW,315,4.0,6.5,68,0.00,,,0.00,WUHU216HW,2013-07-04 05:43:00,
2013-07-03 22:47:00,61.9,51.7,30.11,NW,315,5.4,6.5,69,0.00,,,0.00,WUHU216HW,2013-07-04 05:47:00,
2013-07-03 22:48:00,61.9,51.3,30.11,NNW,338,2.7,5.4,68,0.00,,,0.00,WUHU216HW,2013-07-04 05:48:00,
2013-07-03 22:52:00,61.9,51.7,30.12,NW,315,4.3,5.4,69,0.00,,,0.00,WUHU216HW,2013-07-04 05:52:00,
2013-07-03 22:53:00,61.7,51.1,30.12,NW,315,2.7,5.4,68,0.00,,,0.00,WUHU216HW,2013-07-04 05:53:00,
2013-07-03 22:57:00,61.7,51.1,30.11,West,270,2.7,4.9,68,0.00,,,0.00,WUHU216HW,2013-07-04 05:57:00,
2013-07-03 22:58:00,61.6,50.9,30.12,NW,315,3.4,4.9,68,0.00,,,0.00,WUHU216HW,2013-07-04 05:58:00,
2013-07-03 23:02:00,61.6,51.4,30.12,NW,315,2.5,4.7,69,0.00,,,0.00,WUHU216HW,2013-07-04 06:02:00,
2013-07-03 23:03:00,61.6,51.8,30.12,NNW,338,3.4,4.7,70,0.00,,,0.00,WUHU216HW,2013-07-04 06:03:00,
2013-07-03 23:07:00,61.4,51.6,30.12,NW,315,2.7,4.3,70,0.00,,,0.00,WUHU216HW,2013-07-04 06:07:00,
2013-07-03 23:08:00,61.4,51.2,30.12,WNW,293,1.8,4.3,69,0.00,,,0.00,WUHU216HW,2013-07-04 06:08:00,
2013-07-03 23:12:00,61.2,51.0,30.12,NW,315,3.4,4.7,69,0.00,,,0.00,WUHU216HW,2013-07-04 06:12:00,
2013-07-03 23:13:00,61.2,51.5,30.12,NW,315,3.4,4.7,70,0.00,,,0.00,WUHU216HW,2013-07-04 06:13:00,
2013-07-03 23:17:00,61.2,51.5,30.12,NNW,338,2.5,4.9,70,0.00,,,0.00,WUHU216HW,2013-07-04 06:17:00,
2013-07-03 23:18:00,61.2,51.0,30.12,West,270,1.8,4.9,69,0.00,,,0.00,WUHU216HW,2013-07-04 06:18:00,
2013-07-03 23:22:00,61.0,51.3,30.12,West,270,1.3,4.9,70,0.00,,,0.00,WUHU216HW,2013-07-04 06:22:00,
2013-07-03 23:23:00,61.0,50.9,30.12,NW,315,2.2,4.9,69,0.00,,,0.00,WUHU216HW,2013-07-04 06:23:00,
2013-07-03 23:27:00,60.8,51.1,30.12,NW,315,0.7,3.8,70,0.00,,,0.00,WUHU216HW,2013-07-04 06:27:00,
2013-07-03 23:28:00,60.8,51.1,30.12,WNW,293,1.8,3.8,70,0.00,,,0.00,WUHU216HW,2013-07-04 06:28:00,
2013-07-03 23:32:00,60.7,51.7,30.12,NW,315,3.4,3.4,72,0.00,,,0.00,WUHU216HW,2013-07-04 06:32:00,
2013-07-03 23:33:00,60.7,51.3,30.12,NNW,338,1.8,3.4,71,0.00,,,0.00,WUHU216HW,2013-07-04 06:33:00,
2013-07-03 23:37:00,60.5,51.1,30.12,NW,315,2.7,4.7,71,0.00,,,0.00,WUHU216HW,2013-07-04 06:37:00,
2013-07-03 23:38:00,60.5,50.8,30.12,NW,315,2.7,4.7,70,0.00,,,0.00,WUHU216HW,2013-07-04 06:38:00,
2013-07-03 23:39:00,60.5,50.8,30.12,NW,315,2.2,4.7,70,0.00,,,0.00,WUHU216HW,2013-07-04 06:39:00,
2013-07-03 23:42:00,60.3,50.9,30.12,WNW,293,3.4,4.7,71,0.00,,,0.00,WUHU216HW,2013-07-04 06:42:00,
2013-07-03 23:43:00,60.5,51.1,30.12,NW,315,3.6,4.7,71,0.00,,,0.00,WUHU216HW,2013-07-04 06:43:00,
2013-07-03 23:44:00,60.3,50.9,30.12,NW,315,3.4,4.7,71,0.00,,,0.00,WUHU216HW,2013-07-04 06:44:00,
2013-07-03 23:47:00,60.5,51.8,30.12,NW,315,3.4,4.3,73,0.00,,,0.00,WUHU216HW,2013-07-04 06:47:00,
2013-07-03 23:48:00,60.5,51.8,30.12,NW,315,3.4,4.3,73,0.00,,,0.00,WUHU216HW,2013-07-04 06:48:00,
2013-07-03 23:49:00,60.5,51.5,30.12,NNW,338,1.8,4.3,72,0.00,,,0.00,WUHU216HW,2013-07-04 06:49:00,
2013-07-03 23:52:00,60.3,51.7,30.12,West,270,2.7,4.3,73,0.00,,,0.00,WUHU216HW,2013-07-04 06:52:00,
2013-07-03 23:53:00,60.3,51.3,30.12,NNW,338,1.1,4.3,72,0.00,,,0.00,WUHU216HW,2013-07-04 06:53:00,
2013-07-03 23:54:00,60.3,51.3,30.12,NNW,338,1.8,4.3,72,0.00,,,0.00,WUHU216HW,2013-07-04 06:54:00,
2013-07-03 23:57:00,60.1,51.1,30.12,NW,315,2.2,4.3,72,0.00,,,0.00,WUHU216HW,2013-07-04 06:57:00,
2013-07-03 23:58:00,60.3,51.3,30.12,NW,315,2.2,4.3,72,0.00,,,0.00,WUHU216HW,2013-07-04 06:58:00,
2013-07-03 23:59:00,60.1,51.1,30.12,ENE,68,0.9,4.3,72,0.00,,,0.00,WUHU216HW,2013-07-04 06:59:00,